GFSFLT2_sfc_dewp_000.txt.gz
Dewpoint
69 69 69 69 68 68 68 68 68 68 67 66 66 65 64 62 61 61 61 60 61 61 62 62 62 62 62 62 62 61 55 55
67 68 69 67 66 67 67 67 67 67 67 66 65 65 64 64 63 62 63 63 62 63 62 62 62 62 62 62 62 56 51 53
67 67 67 65 65 66 67 67 66 66 66 65 64 62 60 61 63 64 64 63 63 63 64 63 63 62 61 62 61 52 49 51
65 64 63 63 66 64 63 63 63 63 63 62 62 61 61 62 62 63 64 64 64 64 64 64 63 59 58 59 56 54 49 48
62 62 62 62 62 62 61 62 61 62 61 61 60 61 60 60 60 59 59 61 60 59 59 59 58 58 57 57 56 55 51 49
61 61 60 60 60 60 60 60 60 61 61 61 60 59 58 57 57 55 53 53 52 53 55 55 55 54 52 53 54 53 51 49
58 59 59 59 59 59 59 60 61 61 61 61 59 57 53 53 52 52 52 52 52 51 51 50 50 50 49 49 49 49 49 48
58 59 57 56 57 58 59 59 60 61 60 58 56 54 53 51 49 48 48 50 49 49 50 49 48 47 45 46 46 46 46 48
58 58 58 58 58 58 59 58 59 59 56 54 54 51 48 46 44 44 45 47 46 45 45 43 42 42 41 42 42 44 44 48
60 60 61 60 58 58 57 55 56 55 54 53 49 45 44 44 46 44 45 44 42 43 43 39 41 40 39 39 39 42 42 48
60 60 59 58 57 55 53 51 50 50 50 46 43 43 43 43 44 44 42 40 40 40 40 40 40 39 39 39 38 39 43 47
57 56 55 53 52 53 53 50 49 50 47 42 41 41 43 43 42 41 40 39 39 39 38 39 39 40 39 37 37 37 44 46
53 53 53 51 48 49 49 48 50 45 42 41 40 39 39 40 40 40 40 39 39 40 39 39 38 42 39 37 38 39 41 43
48 48 47 46 47 48 50 49 45 42 39 38 39 39 38 39 41 41 40 39 39 40 40 39 39 41 40 39 36 37 38 37
40 41 41 43 47 46 42 41 41 38 39 35 37 38 38 39 40 40 39 39 40 40 39 39 39 39 39 38 34 33 35 36
37 38 38 38 39 39 38 38 37 39 37 34 36 38 37 38 39 39 39 39 40 40 38 37 38 34 37 35 36 35 33 32
37 37 37 37 38 40 39 36 38 37 35 34 34 37 37 37 38 38 39 38 37 37 35 33 35 33 34 34 34 34 34 33
37 38 38 38 37 37 36 36 35 33 35 35 36 36 37 38 37 37 37 36 35 34 33 33 33 33 33 33 33 32 31 31
36 35 34 35 35 35 34 33 31 34 35 36 36 37 37 37 37 37 36 35 35 33 31 31 30 29 30 30 32 31 33 32
32 32 32 33 35 34 35 35 37 37 38 37 37 37 36 37 36 34 33 35 34 35 32 31 30 29 28 28 30 30 31 31

GFSFLT2_sfc_dewp_003.txt.gz
Dewpoint
68 68 69 69 68 68 68 68 68 68 67 67 66 65 64 62 62 63 63 62 62 63 63 63 63 64 64 64 64 60 51 49
67 68 68 69 69 67 68 68 67 67 67 66 65 64 64 63 63 62 63 64 64 64 64 64 64 64 64 63 63 59 53 51
67 67 68 69 69 68 67 67 67 66 65 65 64 62 62 62 63 64 64 64 64 65 65 64 64 63 63 63 62 55 55 52
66 67 67 68 67 67 66 65 63 63 62 63 63 64 64 63 64 64 64 64 65 64 64 64 62 59 58 58 54 56 54 54
64 66 67 66 66 65 64 63 63 63 63 63 63 64 64 64 63 62 63 61 57 55 56 56 59 58 55 54 52 51 50 49
65 64 64 64 62 62 61 60 61 61 62 63 64 62 62 60 57 56 57 55 55 54 53 56 55 52 51 51 48 43 38 40
61 61 61 61 61 61 61 62 63 64 64 64 63 61 59 57 55 52 52 51 50 50 51 49 47 45 46 44 41 41 41 39
60 58 58 59 59 61 61 60 60 62 63 61 60 61 58 50 48 48 47 48 48 47 46 43 41 40 40 43 40 40 41 46
59 59 60 60 60 61 60 58 58 58 58 58 56 53 51 48 47 47 47 46 45 44 41 42 39 36 37 36 37 40 40 48
58 59 59 59 59 57 54 54 55 55 56 55 49 46 48 49 46 46 43 42 41 41 39 38 38 37 35 35 36 37 48 48
59 59 58 55 56 52 50 51 48 49 50 47 46 45 46 47 45 44 43 41 42 39 38 38 36 35 29 33 33 35 46 43
57 57 55 54 54 50 51 49 47 46 41 40 41 41 44 44 44 45 42 41 40 39 38 37 39 39 30 32 34 38 46 44
56 54 52 51 49 50 50 50 47 40 39 41 41 42 42 44 41 42 42 40 42 41 37 35 34 40 34 30 30 41 43 41
55 52 48 46 48 50 51 50 44 39 39 41 40 41 40 39 42 41 43 41 43 42 38 34 36 41 32 29 25 25 32 37
51 48 46 46 47 45 43 43 43 40 38 37 38 40 38 40 43 43 43 43 42 42 40 37 33 37 39 31 26 24 31 30
43 42 41 41 43 42 43 39 38 40 38 38 39 41 41 39 41 43 44 43 42 41 38 37 35 30 30 32 33 32 24 22
42 41 40 40 41 41 39 39 39 39 39 41 42 41 41 40 41 42 43 41 42 40 38 34 30 27 26 26 27 24 25 23
42 39 37 38 39 39 40 39 37 37 39 39 39 40 40 41 41 42 42 41 40 37 35 32 28 27 25 24 21 19 18 23
37 36 35 37 38 37 37 37 38 36 36 35 37 35 35 39 42 42 40 38 37 36 34 32 29 24 24 21 24 23 25 24
36 35 33 33 33 31 29 27 24 24 28 29 30 32 34 40 41 40 37 36 36 37 33 30 32 29 30 31 28 28 31 31

GFSFLT2_sfc_dewp_006.txt.gz
Dewpoint
67 66 67 68 68 68 68 68 68 67 67 65 64 63 63 62 62 63 63 62 62 62 62 63 63 64 63 63 63 61 50 46
67 67 67 67 67 68 68 68 67 67 66 65 64 64 62 63 61 63 63 63 63 64 64 65 64 65 64 63 62 62 48 46
64 64 65 66 65 67 67 67 66 66 64 64 62 58 58 57 62 63 64 65 65 65 64 64 64 64 62 61 61 45 48 45
65 66 66 66 62 63 61 59 58 58 59 61 59 62 62 61 62 64 64 63 64 61 60 61 60 50 49 55 45 49 45 46
64 66 66 63 61 58 55 55 58 59 62 63 62 62 62 59 57 56 58 58 53 52 51 49 53 51 48 50 47 44 40 40
63 61 62 62 56 55 56 56 59 60 61 63 64 62 64 58 54 55 57 53 52 50 49 52 51 48 49 47 46 42 39 39
60 60 60 59 59 58 59 60 60 63 63 63 62 60 61 58 56 52 51 50 49 48 46 44 43 42 44 44 42 42 42 40
58 57 58 59 60 62 59 58 60 62 64 64 61 61 61 59 51 48 48 47 46 43 42 40 39 40 39 41 41 40 39 43
57 59 61 60 58 58 58 57 58 58 61 62 61 60 58 54 49 49 47 46 45 43 41 41 38 37 38 38 38 39 38 44
57 57 59 59 60 57 57 56 57 56 54 55 53 50 53 51 47 47 44 43 41 41 40 38 38 38 38 35 36 35 37 44
57 58 58 58 58 55 52 53 50 48 46 45 47 46 47 48 46 46 45 42 43 41 39 39 36 36 34 33 35 35 36 34
58 56 57 58 56 53 48 46 45 43 42 42 43 43 45 46 45 45 42 39 38 39 40 39 38 39 34 33 36 34 34 37
57 57 57 55 52 51 48 48 46 43 41 43 43 42 41 43 41 42 42 41 43 43 40 39 37 39 34 30 28 29 34 36
56 55 55 51 49 48 50 50 45 41 42 43 41 41 39 39 43 41 42 40 42 43 42 37 33 37 36 31 25 23 23 31
55 53 49 48 47 46 45 45 44 43 41 39 41 42 40 40 42 42 43 41 39 41 40 39 34 33 35 32 27 23 25 25
51 47 45 44 43 44 45 40 39 40 40 40 40 43 42 40 40 42 43 40 40 40 37 38 35 29 29 26 30 29 25 22
46 43 41 42 43 43 41 41 39 39 39 40 40 39 40 38 39 41 41 39 40 42 40 35 32 31 29 28 28 24 24 20
45 42 40 41 41 42 43 41 36 32 29 27 24 23 24 28 29 39 42 42 42 40 38 35 33 30 27 25 23 22 20 19
42 40 38 40 40 37 34 29 28 24 24 22 24 22 24 28 32 36 39 42 40 38 37 36 33 29 27 24 23 23 22 22
40 39 37 35 31 26 26 26 24 24 27 28 26 27 29 35 39 41 42 39 36 38 38 34 31 29 28 27 25 24 22 22

GFSFLT2_sfc_dewp_009.txt.gz
Dewpoint
67 66 66 68 67 67 68 68 68 67 66 64 63 63 62 62 62 63 63 63 63 63 64 64 64 64 64 63 62 63 56 45
66 66 66 67 67 67 67 67 67 66 65 64 63 63 62 62 61 63 64 64 64 65 65 64 64 64 63 61 61 61 45 43
65 64 65 66 66 66 66 67 66 65 64 63 62 58 57 57 62 63 64 64 64 64 62 61 62 63 63 60 60 43 44 41
64 64 64 64 58 61 58 55 54 56 58 58 56 59 58 53 59 63 64 63 63 62 60 61 60 47 47 58 43 44 40 39
62 63 63 60 57 53 51 52 55 58 61 58 61 59 60 57 56 55 57 59 52 53 51 49 51 49 47 47 45 44 38 38
59 58 59 59 53 51 52 55 56 57 59 60 61 58 60 59 56 57 55 52 52 51 49 51 48 45 44 45 44 41 39 39
56 57 58 57 56 57 58 61 61 61 61 63 60 59 59 57 59 58 57 51 50 50 48 44 42 42 41 41 41 42 41 38
56 55 57 58 60 60 58 58 58 58 61 62 61 58 58 56 55 54 50 50 48 46 44 42 41 42 42 44 40 40 40 41
55 59 60 60 58 56 56 56 57 56 58 62 63 60 59 60 53 53 52 48 46 44 44 42 40 40 41 39 38 38 38 38
56 58 58 57 59 58 59 57 56 55 55 56 54 50 53 53 50 49 47 49 47 47 46 42 42 39 39 37 36 35 37 40
55 58 57 59 59 56 55 56 51 49 48 47 48 46 46 48 46 47 47 43 43 42 41 42 40 39 38 37 39 37 37 32
57 57 57 59 55 54 50 48 47 45 44 44 45 44 46 46 44 46 45 41 42 43 45 43 42 39 33 36 38 32 33 33
57 56 57 55 52 50 48 48 46 44 44 45 45 44 42 44 43 44 44 42 44 44 43 43 39 37 33 34 32 35 35 29
56 55 55 51 49 47 49 48 45 42 44 45 43 44 42 42 44 43 43 42 43 43 43 40 36 34 31 31 28 25 24 30
55 54 51 48 49 47 45 45 45 42 41 40 42 44 42 42 43 42 43 41 38 42 39 40 35 33 34 29 26 24 26 26
52 50 48 47 43 44 46 42 40 42 41 41 40 40 39 35 35 37 40 39 39 38 36 39 37 32 31 28 32 29 24 23
50 47 43 43 44 45 43 42 40 39 36 33 31 29 27 24 26 32 37 37 39 40 40 39 35 34 32 30 29 26 24 21
48 43 42 43 44 45 45 40 33 30 28 25 24 24 25 28 28 33 34 35 39 39 40 38 39 36 31 28 26 22 20 21
44 42 41 43 43 38 34 32 30 28 27 26 28 25 26 30 34 36 35 37 39 39 40 40 39 35 31 27 25 24 24 23
42 41 41 39 34 31 31 28 27 27 29 28 26 27 28 31 34 37 37 38 39 38 39 40 39 34 31 30 27 26 24 23

GFSFLT2_sfc_dewp_012.txt.gz
Dewpoint
66 66 68 68 67 67 67 67 67 66 66 64 64 64 64 64 65 65 65 65 65 66 65 65 65 64 63 62 62 61 56 50
66 67 67 67 66 66 66 66 66 65 64 63 63 64 64 64 64 65 65 64 64 64 63 62 63 63 62 63 61 59 44 47
66 66 66 67 66 65 66 66 65 64 63 63 62 60 61 62 63 64 64 63 63 63 61 61 61 62 63 63 63 46 45 44
64 65 65 65 60 64 62 60 60 60 60 61 61 61 57 55 62 63 63 62 62 62 61 62 61 51 51 59 48 48 45 43
63 64 65 62 60 59 57 58 60 62 61 62 62 62 62 61 61 61 61 62 57 58 56 54 51 51 49 49 48 44 44 42
62 61 61 59 56 55 57 59 61 62 62 61 63 63 62 62 60 59 58 57 56 55 53 53 50 48 46 46 46 45 44 43
57 60 60 60 59 61 62 62 62 63 64 63 63 61 60 59 59 57 58 57 54 50 48 47 46 44 45 45 43 43 43 44
58 57 60 61 62 61 61 61 61 61 62 64 62 61 60 59 57 53 53 50 48 48 48 47 46 45 43 45 44 42 42 44
56 59 63 62 61 60 59 56 57 60 62 63 63 59 58 55 53 55 52 50 48 48 47 45 45 43 42 43 42 40 40 42
57 58 61 61 59 59 60 60 59 55 57 55 53 51 52 53 52 51 51 49 47 46 47 45 44 44 43 42 42 40 37 37
58 60 60 58 61 59 59 58 53 51 52 52 51 49 50 51 51 52 50 49 48 47 48 47 45 43 41 37 41 38 37 32
59 59 60 60 59 57 55 54 53 51 50 49 50 48 50 50 51 48 47 47 47 48 47 46 46 43 35 32 38 38 35 37
58 58 59 59 55 52 52 51 51 49 48 49 48 48 47 47 48 48 48 46 47 46 45 44 43 41 36 34 35 34 32 34
57 57 57 57 53 54 54 50 49 48 49 48 48 48 46 44 47 46 46 45 45 45 42 42 40 40 35 33 30 29 31 30
57 57 56 53 53 50 50 49 50 48 47 47 47 46 43 42 43 44 44 43 43 43 41 41 39 38 37 33 30 28 29 31
56 55 51 51 50 50 50 46 44 46 46 43 40 40 36 31 35 39 40 42 42 43 38 41 40 36 36 34 34 32 26 24
56 51 47 48 49 49 48 46 46 42 39 37 36 35 35 33 35 39 39 39 40 42 43 42 40 38 36 33 30 30 28 24
52 46 45 48 48 48 46 42 38 37 33 33 34 34 34 36 37 39 41 41 41 43 42 41 40 38 36 34 30 27 25 25
48 44 44 47 46 42 41 39 37 36 34 34 33 33 33 36 36 39 40 41 42 41 40 40 40 38 37 33 31 30 28 26
45 43 43 44 40 37 38 37 35 35 36 33 34 33 34 34 37 38 39 41 39 40 41 41 40 39 34 34 31 31 29 27

GFSFLT2_sfc_dewp_015.txt.gz
Dewpoint
66 67 65 67 66 66 66 66 66 64 64 65 64 64 65 65 66 66 65 64 64 64 63 62 63 63 62 63 62 62 50 52
64 66 66 66 65 65 65 65 64 63 64 63 63 64 64 65 64 65 64 63 62 63 61 61 61 62 62 63 62 56 45 49
64 63 65 64 65 64 64 65 63 63 63 63 62 60 61 62 62 63 62 61 61 62 61 61 61 59 61 61 59 45 44 48
61 63 65 65 62 63 62 61 61 59 59 60 59 60 59 59 62 63 63 62 61 61 61 61 58 48 49 53 46 43 43 49
62 64 64 62 60 61 59 58 59 61 59 59 60 60 61 60 59 60 60 60 57 57 52 50 46 46 46 46 44 41 44 44
62 64 63 59 61 59 56 57 60 60 60 60 61 61 59 58 57 57 56 56 51 50 49 47 44 44 42 43 42 41 43 42
60 57 57 55 57 61 61 60 61 62 62 62 61 59 57 57 56 54 51 48 48 47 46 43 43 43 42 44 42 41 41 43
56 56 58 59 57 58 57 58 57 61 62 62 60 60 59 55 52 51 48 47 47 46 43 42 42 42 42 43 41 41 38 39
55 57 59 58 58 57 55 56 58 59 55 57 57 56 53 49 51 49 47 46 44 44 44 45 44 43 42 42 41 39 38 37
55 60 59 58 56 56 57 57 54 54 52 52 50 50 50 50 49 48 47 47 46 46 46 44 44 43 42 41 39 37 35 33
59 59 56 55 56 58 56 50 50 50 50 49 47 48 48 49 49 47 45 46 47 46 45 45 43 43 37 34 37 37 34 35
59 57 56 57 58 55 53 50 50 49 47 47 46 46 45 47 48 47 46 45 45 44 43 44 44 40 35 34 35 35 34 34
58 58 56 58 54 52 51 49 46 46 46 45 46 46 46 44 44 43 44 43 43 43 43 39 39 39 34 33 32 33 30 31
57 57 57 58 52 50 50 46 45 45 46 46 45 44 43 43 43 43 42 42 41 41 39 38 39 37 33 33 29 30 31 30
56 56 55 55 51 48 46 46 46 46 45 45 43 37 30 31 36 36 36 39 40 40 39 39 36 36 35 33 29 28 28 28
57 55 50 50 47 45 43 44 42 43 41 35 31 32 31 31 35 36 36 37 35 39 40 40 37 35 35 33 31 30 25 24
56 48 46 47 46 45 44 43 38 35 33 31 29 32 32 33 35 35 37 39 39 41 40 39 38 36 34 32 29 28 25 24
47 44 45 46 46 43 39 34 32 30 30 31 30 32 33 35 33 37 37 39 41 40 39 39 38 36 36 34 30 26 25 25
43 44 45 43 38 35 34 32 30 28 30 31 30 30 31 31 33 35 37 40 39 39 39 39 38 37 36 33 31 30 28 26
42 44 44 40 36 34 32 32 33 32 32 31 32 31 31 30 33 34 35 38 39 39 39 38 38 37 36 32 32 28 30 27

GFSFLT2_sfc_dewp_018.txt.gz
Dewpoint
64 64 65 65 65 66 66 65 64 65 65 65 65 65 65 65 65 65 65 64 63 62 62 61 62 62 63 62 57 58 51 54
61 62 62 65 65 65 65 65 64 64 65 64 64 64 65 65 64 64 63 62 61 60 61 61 61 62 62 61 55 55 47 51
61 62 65 64 64 64 64 64 63 63 63 63 62 61 61 61 62 62 62 61 60 59 60 62 59 59 60 56 52 43 47 50
62 61 64 64 62 63 61 61 60 59 59 59 58 59 59 60 62 62 61 61 61 59 61 56 51 46 48 50 42 41 43 50
60 62 63 62 60 61 60 59 58 58 58 58 59 59 60 58 57 58 57 56 50 50 47 45 44 43 44 44 41 40 43 43
59 62 64 62 60 59 57 57 59 60 60 60 60 59 57 55 56 56 52 50 47 47 46 44 43 42 43 43 41 41 41 43
60 62 63 60 59 57 58 60 61 61 61 61 59 57 56 53 50 49 47 47 46 44 43 42 42 42 42 41 41 39 37 40
61 61 57 58 59 59 58 60 61 62 61 60 59 58 54 52 50 47 46 45 45 44 43 43 43 42 42 42 40 38 36 35
56 57 59 57 56 55 58 60 59 57 58 58 58 57 53 51 48 47 47 46 44 45 44 44 43 43 42 41 38 37 35 34
57 59 58 57 55 56 57 56 55 53 52 51 50 50 51 49 47 45 45 47 46 45 45 43 43 43 40 36 38 36 34 32
59 58 56 54 56 57 54 51 49 49 49 48 48 48 49 49 47 45 46 45 45 44 43 44 43 40 36 34 37 34 34 31
59 56 54 56 57 52 50 49 49 48 47 46 45 45 48 47 45 45 44 43 43 42 40 40 41 40 34 32 32 33 32 32
57 54 56 56 53 50 49 47 46 46 44 45 46 45 44 44 43 43 43 41 41 42 40 37 37 37 33 33 32 32 31 30
56 54 56 55 51 50 48 45 45 45 45 45 44 44 43 40 40 36 38 39 40 39 38 37 39 37 33 32 29 30 30 28
56 55 55 56 52 49 46 46 46 45 44 44 36 32 31 35 35 35 35 36 35 36 39 38 36 36 34 32 28 27 28 28
57 56 56 56 51 48 44 42 42 44 42 34 30 32 34 35 35 36 36 38 36 38 40 38 36 34 34 32 30 29 24 22
56 56 55 52 48 48 44 44 42 38 34 30 31 33 35 34 35 37 37 40 40 39 39 37 36 35 33 32 30 28 25 23
57 49 48 47 46 45 44 38 34 31 30 30 31 33 35 33 35 36 37 40 39 39 39 38 37 36 35 33 30 26 25 24
47 45 46 47 43 41 36 32 30 29 29 31 31 31 32 30 33 34 36 40 39 39 39 38 37 36 35 33 31 30 29 27
45 45 42 41 40 39 37 31 31 32 32 32 32 32 31 33 33 34 35 38 38 38 38 36 37 37 35 35 32 30 30 27

GFSFLT2_sfc_dewp_021.txt.gz
Dewpoint
62 64 63 64 65 66 65 65 65 66 66 66 65 66 65 65 65 65 64 63 62 62 62 62 63 62 59 60 58 58 51 54
61 62 63 64 64 64 64 64 64 65 65 65 64 65 65 64 64 64 62 62 62 62 62 62 64 60 58 58 58 53 48 51
60 60 60 63 64 64 64 64 64 64 64 63 62 61 61 60 62 62 61 61 61 62 61 58 57 59 57 55 50 46 47 50
58 58 60 63 63 62 61 60 60 60 60 59 59 59 60 60 61 61 61 61 60 59 57 54 48 45 45 46 41 42 44 49
60 61 62 63 60 61 60 59 58 58 58 57 58 59 59 58 56 56 53 53 46 46 45 44 42 44 43 42 41 41 42 44
60 61 63 62 60 59 58 57 58 58 58 59 59 57 55 55 54 51 48 48 45 45 45 43 42 43 42 41 39 38 38 40
58 60 63 61 59 57 56 57 60 60 60 60 58 56 53 49 48 47 47 46 44 43 42 42 42 42 42 40 37 36 35 37
59 60 62 60 58 57 57 60 61 61 60 59 57 54 52 50 47 46 45 45 44 44 43 43 42 42 41 39 37 35 33 33
60 60 60 58 58 58 59 61 60 59 59 58 57 54 52 48 47 47 46 45 45 44 44 44 43 42 38 37 37 33 32 31
58 59 58 57 55 57 59 58 57 56 56 55 52 51 49 47 46 45 46 46 45 44 44 43 43 39 35 36 35 34 31 30
57 58 57 55 56 57 56 56 52 50 50 49 49 49 49 46 45 46 45 44 44 42 43 42 41 38 34 35 34 32 31 28
58 57 55 55 55 52 52 49 49 48 48 47 46 49 47 46 45 44 44 42 41 41 37 38 40 38 32 32 32 31 30 30
57 55 54 56 51 48 47 47 46 46 45 45 46 46 44 43 44 42 41 40 41 40 38 36 37 36 33 32 32 31 29 28
56 54 56 55 50 48 47 46 45 44 45 44 44 44 43 42 38 35 36 36 36 38 38 37 38 36 33 31 29 30 29 27
56 54 56 54 51 47 46 45 45 44 43 43 37 36 34 34 35 35 35 35 34 35 38 37 35 34 33 32 28 27 28 28
57 55 56 54 50 47 44 46 42 43 43 34 30 34 35 35 35 37 37 38 37 40 39 38 35 34 33 31 30 28 25 24
57 55 55 55 50 48 47 48 46 41 33 30 31 35 35 35 37 37 39 41 40 38 37 36 36 34 33 32 30 28 25 23
58 56 55 55 52 49 47 48 43 34 30 31 33 35 34 35 36 37 40 40 40 39 38 37 36 35 35 33 30 27 25 24
57 55 55 55 51 49 47 45 43 36 30 33 33 33 31 33 33 35 40 41 40 40 38 37 37 35 34 33 32 30 29 27
56 51 51 47 48 46 42 39 35 32 31 32 33 32 31 33 34 35 40 39 38 39 38 36 37 36 35 35 33 31 30 28

GFSFLT2_sfc_dewp_024.txt.gz
Dewpoint
63 63 64 65 66 66 66 66 66 67 66 66 66 66 65 65 65 65 64 63 63 64 65 63 61 62 62 60 59 57 52 54
61 61 61 62 63 64 64 65 66 66 66 65 64 65 65 64 64 64 63 63 63 62 64 61 60 60 60 58 56 52 49 52
60 60 61 60 64 63 64 65 65 64 64 64 62 61 61 58 62 62 62 62 62 61 60 60 59 57 55 53 49 47 48 50
59 59 58 58 64 62 59 60 60 60 60 60 59 59 59 60 61 62 62 61 59 58 56 53 48 44 44 46 42 42 43 48
59 58 59 58 63 60 59 58 59 59 59 58 58 59 59 56 55 53 51 50 45 45 45 44 44 43 42 41 39 39 40 42
57 58 61 62 61 59 58 57 57 57 57 58 58 57 55 52 51 49 47 46 44 44 44 44 44 43 42 39 38 37 37 39
58 60 62 62 60 57 57 56 57 57 58 60 58 55 52 48 47 47 46 45 44 43 43 43 43 42 40 38 36 35 35 36
59 59 61 61 58 56 56 57 59 60 60 58 56 52 50 47 46 45 45 45 44 44 43 43 42 41 39 37 34 33 32 33
57 59 61 60 58 56 57 60 60 59 59 57 54 52 50 46 46 46 45 44 44 44 44 44 42 38 37 36 34 33 32 32
59 59 60 58 57 57 58 59 58 58 57 56 52 50 48 47 46 46 46 45 44 44 43 43 40 37 36 35 34 32 31 32
58 59 58 57 56 57 57 57 56 55 54 52 51 49 47 46 46 46 45 44 43 43 43 42 39 37 35 34 32 31 31 28
58 58 57 56 56 54 53 51 50 50 49 49 49 48 46 46 46 44 43 42 41 39 37 39 39 37 32 32 32 31 30 29
57 56 55 55 53 51 51 49 49 47 46 46 48 47 45 44 43 42 41 40 41 39 38 36 37 36 34 33 32 32 29 29
57 55 55 55 53 48 48 47 45 45 45 45 46 44 43 42 39 39 39 37 36 39 38 38 36 35 33 32 30 31 30 28
56 55 55 54 51 46 45 46 44 44 43 43 41 39 36 34 35 35 35 35 34 37 38 37 35 34 33 33 30 28 28 29
57 55 55 54 49 46 44 45 43 43 43 36 32 35 35 35 36 37 37 38 39 39 39 38 36 33 33 32 31 30 28 26
57 55 55 54 50 47 47 46 45 43 37 31 34 35 35 36 37 38 39 40 39 38 37 36 36 34 33 33 31 29 27 25
57 55 55 55 52 50 47 48 44 40 36 34 34 34 36 36 37 39 39 39 39 39 38 36 35 35 35 34 31 29 26 25
57 56 54 55 54 51 49 47 45 42 37 38 35 35 35 34 35 38 40 41 40 39 38 37 36 35 35 34 33 31 29 27
56 56 56 55 56 53 50 48 46 42 37 36 35 32 35 35 35 38 41 41 40 40 38 37 37 37 35 35 33 32 31 29

GFSFLT2_sfc_dewp_027.txt.gz
Dewpoint
63 64 63 63 65 66 66 67 67 67 67 67 67 66 66 65 65 64 64 65 65 63 62 64 63 60 59 59 59 58 52 52
60 60 61 62 64 65 66 66 66 66 66 66 65 65 65 65 64 64 64 63 65 63 62 62 60 58 57 55 56 55 49 48
58 59 61 62 63 63 65 66 66 65 64 64 62 59 58 58 61 62 63 62 62 62 60 58 57 56 53 51 51 46 48 47
58 58 58 58 62 61 62 62 62 61 60 60 59 60 59 58 61 63 62 60 58 57 55 52 49 42 41 46 41 46 47 48
56 57 57 57 58 60 61 60 60 61 61 60 60 60 59 59 55 53 53 51 45 47 46 44 46 42 41 41 41 40 39 40
57 57 57 58 59 61 59 58 58 58 58 60 61 58 57 53 49 49 49 47 48 48 47 48 46 44 43 42 42 39 38 40
56 57 57 61 60 59 58 57 56 58 58 60 60 57 54 50 50 48 47 47 47 47 46 45 44 43 41 39 38 39 41 41
57 58 60 62 61 59 57 57 58 59 60 61 59 55 52 50 49 47 47 46 47 46 45 44 42 41 39 38 36 35 38 44
57 59 62 63 61 58 58 58 59 60 60 60 58 54 53 51 48 48 48 48 48 47 47 45 41 39 37 36 35 36 35 40
58 58 60 63 61 58 58 59 61 61 60 58 55 51 51 51 49 48 48 48 47 46 46 43 42 39 38 35 33 33 36 37
58 59 60 62 61 58 59 62 61 60 60 56 54 51 50 50 49 49 49 46 47 45 45 45 42 39 36 35 34 32 33 29
58 59 60 62 59 58 60 59 58 59 59 55 53 49 49 50 49 49 46 45 44 42 43 43 42 39 31 32 33 32 31 32
58 59 60 59 57 57 58 58 57 57 55 54 53 50 49 49 47 47 45 44 44 44 42 42 39 40 36 34 33 34 32 30
59 59 59 58 57 57 57 56 54 55 51 52 51 49 48 47 47 44 44 43 44 44 43 40 39 40 37 36 33 32 31 30
59 58 58 58 58 53 51 53 49 48 47 48 47 48 46 44 45 43 41 39 38 42 42 42 37 37 38 35 32 29 33 32
59 58 58 57 55 54 53 54 51 48 47 46 44 44 42 37 38 40 40 39 40 41 41 42 40 36 36 34 37 35 29 26
59 58 57 57 54 54 53 53 53 49 45 42 40 40 39 37 40 41 41 41 43 43 42 41 40 39 36 36 36 34 34 28
60 58 57 57 55 53 53 52 50 46 43 40 39 38 38 39 39 41 42 42 42 44 43 41 38 37 36 35 31 29 28 28
58 58 57 57 56 54 53 51 49 48 44 42 41 40 40 40 42 42 41 43 43 42 41 40 40 37 37 35 35 33 32 31
57 57 57 57 56 55 52 51 51 51 48 44 41 41 41 40 41 41 42 43 43 42 40 40 41 39 39 38 36 35 35 33

GFSFLT2_sfc_dewp_030.txt.gz
Dewpoint
65 63 62 64 66 66 67 67 67 67 67 67 66 66 65 65 65 65 65 64 64 65 64 63 60 59 59 59 59 58 46 46
62 61 61 61 64 66 66 67 67 67 67 65 65 64 65 64 64 64 66 64 63 63 63 61 58 57 56 56 56 56 43 42
60 60 61 62 61 63 66 67 66 65 64 64 61 53 53 56 62 64 64 63 62 60 59 58 57 54 53 53 53 42 42 41
58 59 59 59 61 62 63 63 59 60 59 58 55 59 55 54 61 62 62 61 59 57 55 53 51 42 41 49 41 43 41 41
57 58 58 57 57 60 59 58 60 60 59 57 58 59 57 57 57 55 53 54 45 46 46 44 46 44 43 43 42 40 37 37
56 55 56 55 55 58 55 54 55 57 57 58 59 56 57 56 54 53 52 49 50 48 48 50 47 46 46 45 44 39 36 38
54 53 52 54 53 50 52 55 54 53 54 55 54 54 57 54 53 50 49 49 49 48 48 45 46 45 43 42 40 41 41 37
54 53 53 52 52 55 53 54 53 54 57 59 59 55 57 53 52 50 49 48 48 47 45 44 43 43 43 41 39 38 39 40
53 56 57 55 57 59 53 54 53 55 58 62 61 57 56 54 51 50 50 49 49 48 47 45 43 40 40 39 38 39 36 40
56 56 58 59 60 58 53 54 55 57 60 61 60 56 55 54 52 51 49 49 47 46 46 44 43 40 39 37 37 37 39 39
55 57 58 61 62 58 55 57 58 60 61 60 59 55 54 53 51 51 51 48 48 46 46 45 40 38 37 36 37 34 36 30
56 58 60 62 60 57 52 57 59 62 61 58 57 53 53 53 52 52 49 46 46 45 44 41 40 38 27 32 36 35 35 35
56 57 59 60 58 54 53 56 59 60 60 59 57 54 52 53 51 50 48 46 46 46 41 41 38 40 37 37 36 37 36 33
57 57 58 59 56 53 54 56 57 60 60 59 57 55 52 52 51 48 48 46 46 44 41 37 37 39 39 37 37 36 35 34
55 56 57 59 57 54 57 58 58 58 57 58 57 55 52 50 51 48 48 45 42 43 41 39 37 39 41 38 36 31 34 33
56 56 56 58 59 56 57 54 55 57 58 57 54 54 52 48 48 48 47 40 39 39 38 42 41 40 39 36 38 33 25 25
58 58 57 57 59 58 57 57 56 57 56 54 53 51 50 47 46 45 43 39 40 40 43 43 43 40 38 38 36 33 32 28
58 58 57 58 59 59 59 58 57 56 53 50 49 46 47 45 42 44 42 39 42 44 46 46 42 40 37 34 30 31 30 29
58 58 57 58 59 59 59 59 59 56 53 51 49 46 45 46 44 43 43 43 45 44 45 44 41 40 37 33 35 32 29 27
58 57 57 57 58 59 58 58 58 55 54 52 50 47 45 44 44 44 41 44 44 46 46 42 42 39 39 38 33 33 32 30

GFSFLT2_sfc_dewp_033.txt.gz
Dewpoint
66 66 67 67 66 66 67 67 67 67 67 67 66 66 66 66 65 65 65 65 65 64 63 62 59 59 60 58 57 57 45 45
62 63 65 66 66 66 67 67 67 67 66 65 65 65 65 65 65 64 64 65 64 63 61 60 58 58 57 57 55 57 42 42
61 61 62 63 64 66 67 67 66 65 64 63 60 56 56 58 64 65 64 63 63 62 60 59 58 56 54 52 54 42 40 41
60 61 59 57 57 58 59 57 59 58 56 58 54 60 59 56 62 63 62 61 60 59 59 58 55 43 42 50 41 40 37 41
58 56 56 55 56 57 61 62 62 60 61 58 59 60 60 59 57 57 54 54 45 46 47 47 49 45 44 45 41 38 36 42
57 57 57 56 57 60 61 60 59 56 56 58 61 59 61 60 56 54 55 50 51 50 49 51 48 46 46 45 42 37 35 42
54 55 55 56 56 55 55 52 51 53 57 57 57 57 58 55 55 53 52 52 51 51 50 46 47 45 43 41 38 40 39 36
53 52 52 52 51 52 54 55 52 53 56 55 55 55 59 55 55 52 52 51 51 49 47 45 43 43 42 39 38 36 38 40
50 51 50 52 50 51 50 52 52 53 52 60 58 54 58 57 54 53 52 51 51 49 47 45 43 39 38 38 37 37 37 38
47 45 51 53 53 54 53 53 52 50 54 60 60 58 58 57 53 53 52 52 49 47 46 44 42 39 39 37 37 37 38 38
53 56 53 55 57 56 53 55 54 53 60 63 61 58 56 56 54 54 53 51 49 47 46 44 41 38 37 38 39 38 38 31
55 56 57 57 59 58 52 50 53 55 60 59 60 57 57 57 54 54 53 50 48 47 47 41 40 39 29 32 39 38 38 37
53 54 55 56 58 54 50 49 52 57 61 60 59 57 56 57 54 54 53 50 49 49 44 43 38 39 39 40 40 41 41 37
53 53 55 55 53 52 50 50 51 55 62 60 59 59 56 56 55 53 53 48 49 49 45 40 38 41 41 41 41 39 39 38
53 54 54 56 55 52 49 49 53 53 57 59 59 59 56 55 55 54 53 50 49 48 45 42 38 41 43 42 39 37 35 37
54 54 53 54 55 52 51 50 50 54 56 57 58 59 58 54 54 54 52 50 49 47 42 42 42 41 44 41 43 41 32 30
55 54 54 54 56 56 53 54 54 54 56 58 59 58 57 55 53 54 52 49 48 47 43 43 46 45 45 44 42 38 37 33
56 54 52 54 55 57 58 56 56 54 58 57 56 56 54 55 51 52 51 49 45 43 45 46 47 45 46 44 37 33 33 33
55 54 53 54 56 57 59 58 58 57 57 57 54 53 52 51 51 50 49 47 48 48 47 47 47 46 45 40 34 36 35 31
55 54 54 54 58 57 59 59 59 60 60 58 57 53 51 53 50 49 46 46 47 47 48 47 47 47 45 39 38 38 34 32

GFSFLT2_sfc_dewp_036.txt.gz
Dewpoint
66 66 67 67 66 67 67 67 67 68 68 67 67 66 66 67 67 66 66 65 64 64 63 62 60 59 57 57 58 59 49 50
64 65 66 66 66 66 66 67 67 66 66 65 65 65 65 65 65 65 65 64 63 62 61 60 58 57 55 53 55 57 46 50
63 64 64 64 64 65 65 66 65 64 64 63 59 58 58 60 64 65 65 63 62 62 61 59 57 55 55 56 54 44 46 51
60 60 59 61 62 62 64 62 60 58 58 58 58 60 59 61 62 63 63 62 61 60 59 58 55 45 47 54 43 44 46 48
57 56 57 56 56 57 59 60 61 60 60 59 60 59 59 60 59 58 58 57 50 52 54 51 51 49 49 47 45 41 45 46
56 55 55 55 54 54 55 59 61 61 59 61 62 60 60 58 57 57 54 53 49 51 54 51 49 48 47 45 43 42 45 47
56 55 56 56 55 56 56 60 60 57 59 60 60 59 61 59 58 56 54 55 55 55 52 49 48 46 45 42 42 40 40 48
55 56 57 57 58 58 58 59 59 57 59 59 60 60 59 59 58 57 56 55 55 53 51 48 48 46 43 40 40 40 39 45
54 55 55 56 56 56 58 56 48 52 57 59 59 57 58 59 57 57 56 55 54 52 48 48 46 42 42 40 41 38 39 39
51 53 53 53 51 49 53 52 54 55 56 60 59 58 60 60 58 57 56 55 53 51 49 48 46 44 42 41 39 39 38 38
50 52 50 51 49 49 52 55 58 57 57 61 61 60 59 60 58 57 56 54 54 51 50 48 45 42 41 40 40 40 40 36
47 48 51 53 51 47 52 53 56 56 57 60 61 60 60 60 59 58 55 54 53 50 49 45 46 44 35 37 42 42 41 40
51 53 53 53 54 54 55 52 53 54 61 60 62 60 59 59 58 57 55 54 52 52 48 44 42 42 41 42 42 43 42 40
55 56 56 54 56 57 56 53 52 54 61 61 62 61 58 58 58 56 56 54 53 52 48 46 45 44 43 44 43 42 42 42
54 55 56 57 57 57 55 53 53 52 59 60 60 60 59 57 58 57 56 55 53 52 49 46 43 44 44 43 41 40 40 41
54 53 53 54 56 53 53 49 48 52 58 59 59 61 60 58 57 57 57 54 53 51 49 46 44 44 46 45 43 43 38 34
55 54 54 55 56 56 55 51 51 52 58 58 59 60 60 59 58 57 55 53 51 49 47 45 45 46 45 45 46 47 42 37
56 55 54 54 56 56 57 55 55 55 57 58 59 59 60 59 56 55 52 51 51 50 50 46 48 47 47 47 47 45 38 37
55 55 54 55 56 57 57 58 56 56 57 59 58 58 56 55 51 51 51 51 51 50 48 48 48 46 48 48 49 41 39 37
53 53 54 53 55 57 58 57 58 59 59 60 59 58 55 53 52 51 51 50 48 47 48 47 47 48 47 47 46 42 39 37

GFSFLT2_sfc_dewp_039.txt.gz
Dewpoint
65 67 67 66 65 67 67 67 67 68 67 67 67 67 67 67 67 66 66 65 64 63 62 60 58 58 58 58 59 58 52 52
65 66 66 66 66 66 67 67 66 66 66 65 65 66 67 66 66 65 65 64 63 62 60 58 56 54 54 55 56 57 52 52
64 64 64 63 63 66 66 66 65 65 64 62 60 60 60 62 65 64 64 63 62 61 59 57 56 53 53 55 53 50 54 55
62 62 62 62 63 63 63 62 59 58 56 58 57 60 60 62 63 63 63 62 61 60 58 57 52 44 46 50 44 47 52 54
59 59 59 59 60 62 61 60 60 57 59 58 60 61 60 60 60 59 59 58 54 55 54 48 49 47 44 42 42 45 47 52
55 56 57 57 55 56 59 60 61 60 60 59 58 59 58 57 56 54 52 51 46 48 51 50 47 45 43 40 40 45 47 52
55 54 54 54 55 56 58 59 59 59 59 59 59 59 57 56 56 52 52 51 47 52 49 47 46 44 42 40 38 41 47 51
56 55 55 54 55 56 58 58 57 58 59 58 59 58 58 57 58 54 53 53 53 51 49 48 46 42 39 38 38 38 47 49
55 55 56 55 55 56 58 58 56 54 52 57 58 58 58 60 58 56 55 53 52 52 49 47 45 43 38 39 37 38 40 46
54 54 55 55 55 57 58 55 51 48 46 56 57 55 57 57 55 56 55 54 50 48 47 45 43 40 39 38 40 38 36 40
51 53 54 54 54 56 55 51 47 46 48 56 58 58 57 58 56 57 55 52 52 49 48 46 44 42 40 40 39 39 38 36
52 53 52 51 51 51 51 50 51 51 55 60 59 59 59 58 58 57 54 52 52 50 47 46 43 41 37 38 38 39 40 38
52 51 50 49 47 47 48 49 52 54 56 60 60 60 60 58 57 55 53 53 51 49 48 41 40 40 39 39 40 40 39 39
47 47 48 49 47 45 47 54 51 53 54 60 61 61 60 59 57 54 53 53 52 50 45 43 41 40 39 42 40 40 41 40
45 45 51 49 50 48 53 55 51 52 55 58 60 58 54 58 58 55 54 54 53 50 46 43 41 43 42 42 40 39 39 40
51 52 54 52 52 53 54 54 51 49 53 58 59 59 58 59 58 56 55 54 53 50 48 46 44 41 44 44 43 42 38 36
53 54 54 53 53 54 55 53 52 50 55 58 58 59 59 59 58 57 55 54 53 51 49 47 49 49 46 45 46 47 43 41
53 53 54 54 55 55 55 55 50 49 50 58 58 59 60 59 58 58 56 51 50 51 50 50 49 49 48 47 47 46 45 42
52 52 51 52 53 54 54 54 53 51 52 57 58 58 57 58 56 54 51 51 51 51 50 48 47 47 48 48 49 49 48 44
53 53 52 53 53 54 54 55 54 53 56 57 58 59 59 56 52 52 51 52 51 49 48 47 47 47 47 48 48 48 46 39

GFSFLT2_sfc_dewp_042.txt.gz
Dewpoint
64 64 64 67 64 67 67 67 68 68 68 68 69 67 67 66 66 65 64 63 62 61 60 59 59 59 61 60 59 58 52 53
64 65 64 62 62 66 67 67 67 67 67 67 66 66 66 66 65 64 63 62 61 60 59 59 59 59 60 60 59 57 52 54
63 63 63 63 63 66 66 66 66 65 66 65 64 64 63 62 63 63 63 61 60 59 59 57 55 57 59 58 56 54 54 54
62 61 62 62 64 64 64 63 60 60 59 59 60 61 61 61 62 62 61 61 60 59 57 55 52 45 47 53 50 53 54 55
60 60 61 61 62 62 61 59 59 57 56 58 59 61 61 61 60 59 58 59 55 53 48 48 46 44 42 45 47 48 51 54
59 59 59 59 60 60 60 57 59 59 59 59 58 58 57 57 56 56 53 51 49 48 49 48 45 43 41 44 46 47 50 52
57 58 58 58 58 58 59 60 60 60 58 58 56 55 55 55 54 52 50 49 47 51 49 47 45 42 40 41 45 45 48 51
55 55 56 57 57 57 58 58 58 59 60 58 57 56 55 54 55 51 50 50 47 51 47 46 43 39 39 40 42 47 47 50
54 55 56 56 56 56 57 58 56 55 56 58 58 57 57 57 57 54 52 51 52 50 49 47 44 40 38 38 39 45 47 49
55 55 55 54 55 53 55 56 54 51 51 57 57 57 58 58 58 56 55 53 53 51 49 46 45 41 38 39 38 39 44 47
54 54 54 53 54 54 55 53 49 48 49 53 56 56 57 57 56 56 55 53 50 49 47 46 42 41 39 39 39 38 38 45
53 53 53 53 54 54 54 52 48 48 49 53 55 57 57 58 56 56 54 52 50 48 47 47 44 42 38 38 38 39 39 40
52 52 53 52 51 53 52 50 49 50 51 53 57 57 59 58 57 56 54 51 51 49 47 43 42 42 39 38 39 40 39 39
51 52 52 51 51 51 50 49 49 51 51 55 59 60 59 58 57 56 53 52 51 49 46 43 40 41 38 41 38 41 40 40
51 51 50 50 49 48 47 49 52 51 51 53 56 59 59 59 57 56 53 52 52 50 46 43 41 42 42 41 40 39 39 40
50 50 49 49 49 46 45 46 47 49 52 52 56 59 59 58 58 56 54 53 52 51 47 44 43 42 44 44 45 43 38 37
46 48 47 48 49 47 46 46 48 53 51 51 55 58 58 56 57 57 55 54 54 53 48 46 48 48 48 46 46 46 42 42
45 45 45 51 49 49 49 50 52 54 51 51 53 56 58 58 58 58 56 56 55 53 51 48 49 47 47 47 47 46 46 44
47 47 48 51 52 51 51 53 55 53 51 53 54 56 56 58 58 58 56 54 54 53 50 49 48 47 47 47 49 48 47 45
49 50 51 51 52 52 52 53 54 55 53 53 57 57 58 59 59 58 56 53 52 52 50 50 48 48 48 48 49 49 47 45

GFSFLT2_sfc_dewp_045.txt.gz
Dewpoint
65 65 66 65 62 62 65 68 67 67 67 67 67 66 65 65 64 63 62 61 60 60 60 62 62 62 61 60 59 58 53 53
64 64 64 64 64 64 65 67 67 67 68 67 66 66 65 64 63 62 61 60 60 60 60 62 62 61 60 60 59 57 53 54
63 64 63 60 60 61 64 67 68 67 67 66 64 63 62 60 62 61 61 60 59 59 58 61 61 60 60 59 56 53 54 54
61 61 61 59 59 61 61 65 64 65 64 63 62 61 60 59 60 61 61 60 59 59 57 56 53 53 56 56 53 54 55 55
60 60 60 60 60 61 62 61 61 62 61 60 60 61 60 59 58 57 57 55 50 48 49 45 43 47 49 51 52 53 54 55
59 60 60 59 59 60 61 60 60 60 59 59 59 59 58 57 55 55 53 51 48 48 48 45 42 45 47 49 49 51 52 53
59 58 58 60 59 60 59 59 59 59 58 58 57 57 56 55 54 52 50 47 47 49 46 45 42 42 44 46 47 48 49 51
59 58 57 59 59 58 59 60 58 58 58 56 55 55 55 53 53 50 48 46 49 48 46 44 42 40 42 44 44 45 47 49
57 57 58 59 58 58 58 59 57 57 58 57 55 54 54 54 53 50 49 47 50 48 47 44 41 39 39 42 45 46 47 49
56 57 57 57 56 57 56 56 56 55 57 57 56 54 55 55 54 51 51 51 51 50 48 45 43 39 38 39 43 46 45 48
55 56 57 57 55 56 55 54 51 51 54 57 57 56 56 56 56 55 54 53 52 50 48 46 43 40 38 39 39 41 44 46
55 55 55 55 55 55 55 54 50 49 50 54 56 56 57 57 56 56 55 53 51 50 47 46 44 41 37 38 38 39 38 44
53 54 55 55 54 53 53 51 50 49 50 52 53 55 57 56 55 55 54 52 51 49 47 45 43 42 39 38 38 39 39 39
52 52 53 52 52 51 51 50 50 49 50 51 55 56 56 57 56 56 54 52 50 49 46 43 42 41 38 39 36 39 41 40
51 51 52 52 52 51 48 49 50 49 49 51 52 56 57 57 57 56 55 53 51 49 47 44 41 41 42 40 39 38 40 41
51 51 51 51 51 49 49 48 46 46 47 49 51 55 57 59 58 56 55 53 52 51 48 44 44 41 43 44 44 43 39 38
51 51 51 50 50 49 48 47 48 48 50 51 52 54 57 58 58 57 56 54 53 53 51 51 48 48 46 46 45 45 42 41
49 50 50 50 50 49 47 48 46 48 50 51 52 53 56 56 57 57 56 55 54 54 53 51 49 49 48 46 45 46 45 43
48 48 49 49 49 49 48 46 47 47 50 51 52 53 54 56 56 55 56 56 55 55 53 51 50 49 47 48 48 48 47 45
47 46 47 48 48 48 49 49 48 48 50 53 54 53 54 55 56 57 57 57 55 54 54 53 51 50 48 48 49 49 48 46

GFSFLT2_sfc_dewp_048.txt.gz
Dewpoint
62 65 65 65 63 63 64 65 66 67 67 66 66 65 65 65 63 63 64 65 65 64 63 63 63 62 61 60 60 58 54 54
63 64 64 63 62 61 62 63 64 67 67 66 66 65 64 62 61 61 61 62 63 64 63 62 62 61 60 60 60 57 54 54
64 64 61 60 59 61 61 60 65 66 67 66 64 62 60 58 60 61 60 60 61 63 63 62 61 61 61 60 57 54 54 55
62 63 62 61 61 58 57 60 63 65 65 63 62 60 58 57 59 59 59 60 61 63 63 61 59 57 57 57 54 54 55 55
60 60 59 60 61 60 60 61 61 63 63 62 60 59 59 58 57 56 55 54 51 53 52 52 52 53 52 53 54 54 55 56
59 58 57 58 60 61 60 61 60 61 61 60 59 59 57 56 54 52 50 48 48 47 46 47 49 51 52 52 53 54 55 56
59 58 57 57 57 59 60 60 60 61 60 59 58 57 55 54 52 50 48 48 48 46 44 44 46 48 50 51 51 52 53 54
59 59 58 58 57 58 58 59 60 61 59 58 57 56 54 52 51 48 47 47 49 46 44 43 44 45 46 47 48 48 50 52
58 58 59 58 58 58 59 59 58 59 58 56 56 55 54 53 51 48 47 48 48 47 45 42 41 42 44 45 45 46 47 49
58 59 59 59 59 58 58 58 57 58 58 56 54 54 54 52 50 49 48 49 50 48 46 43 41 40 41 44 45 46 46 49
57 58 58 58 57 57 55 55 57 56 57 56 55 54 54 53 51 51 50 50 51 48 48 45 42 40 39 40 43 45 45 47
56 57 57 57 57 56 55 54 50 54 55 57 56 55 56 55 54 53 53 51 52 50 47 46 45 41 37 38 39 40 42 46
55 56 56 56 56 55 54 54 51 49 51 54 57 56 57 57 56 56 55 53 52 50 47 45 43 42 39 39 39 39 39 40
54 54 55 56 57 56 54 54 50 49 50 53 56 56 57 57 56 56 55 53 51 49 47 45 44 42 39 39 36 38 41 40
53 53 54 55 55 54 50 50 50 49 49 51 52 55 55 56 56 55 55 53 51 49 47 45 43 42 42 41 39 37 40 42
52 53 53 53 52 51 50 50 49 49 47 49 50 53 54 56 56 56 55 54 52 51 48 46 44 42 42 42 44 43 39 39
51 52 52 52 51 51 50 49 49 48 48 48 49 52 53 55 56 56 55 54 53 52 50 47 47 46 47 47 46 45 43 41
51 51 51 51 50 50 50 50 49 48 48 48 49 51 53 54 56 56 55 54 54 53 52 50 51 50 49 49 47 46 44 42
50 51 51 51 50 50 49 49 49 48 47 48 49 50 51 52 54 54 54 54 54 54 53 52 52 51 50 49 50 49 48 46
49 50 50 50 50 50 49 49 48 48 48 49 50 52 52 52 54 54 54 54 54 54 53 54 53 52 51 50 50 49 48 47

GFSFLT2_sfc_dewp_051.txt.gz
Dewpoint
66 66 65 65 65 66 66 67 67 67 66 66 66 66 66 65 65 66 66 67 66 65 64 63 62 61 61 61 60 59 53 53
64 65 66 64 64 63 65 65 65 65 66 65 65 65 65 64 65 67 66 66 65 64 63 63 62 61 61 60 60 59 54 53
65 65 65 64 63 62 64 65 64 64 65 65 63 62 59 59 62 65 65 64 63 63 63 62 61 61 61 60 59 54 54 53
64 64 63 63 61 61 63 63 62 62 64 64 61 61 58 56 60 62 63 63 63 63 62 61 58 54 56 57 53 55 54 54
62 62 61 61 61 60 60 62 63 62 65 62 60 58 58 56 57 56 60 61 59 58 58 54 55 54 53 54 55 55 54 54
60 61 61 60 60 59 61 61 62 61 64 60 58 57 57 57 54 53 54 56 59 57 55 56 56 54 54 55 55 54 54 54
58 58 59 60 59 60 61 61 61 62 62 58 56 55 56 52 52 49 50 52 53 53 54 53 54 54 54 54 55 56 56 55
58 57 58 59 59 59 60 60 60 61 61 59 58 56 56 51 50 49 49 48 50 51 52 52 51 52 53 54 54 55 56 56
57 58 58 58 58 58 60 59 60 61 60 59 58 56 56 54 50 49 50 50 49 48 49 50 50 50 51 52 52 53 53 54
58 59 58 58 59 59 59 60 60 60 60 59 57 55 55 53 50 49 51 51 48 46 45 47 47 48 47 47 46 47 48 50
58 59 58 58 59 59 59 59 59 58 59 58 57 55 53 52 50 50 52 52 50 48 46 45 45 44 44 45 46 45 47 44
58 58 58 58 58 58 58 58 56 58 59 58 56 54 54 54 51 52 51 52 51 49 48 47 44 43 36 41 45 46 46 47
57 57 57 57 57 56 56 56 55 56 57 57 57 55 55 56 54 54 52 51 53 53 50 49 46 45 41 41 41 43 45 44
56 57 57 57 57 57 56 55 53 54 56 58 57 57 56 57 57 56 55 54 54 55 52 49 48 46 43 43 41 41 41 42
55 56 56 56 57 56 55 53 51 50 52 55 56 57 55 56 58 58 58 58 54 55 54 52 49 47 47 45 42 43 43 43
54 56 56 56 57 55 53 52 51 50 50 52 52 55 57 57 58 58 58 58 58 57 54 54 53 50 46 44 48 46 43 42
54 55 55 56 55 55 53 53 52 52 51 51 51 53 54 55 57 58 58 58 58 58 57 55 54 54 50 48 47 46 46 46
53 53 54 54 55 54 54 53 52 51 50 50 50 50 54 55 54 57 58 59 59 59 58 57 56 54 52 51 48 48 45 44
51 52 52 54 54 54 54 54 53 52 52 51 52 52 53 54 55 56 57 58 59 59 58 58 57 56 54 53 52 51 50 47
51 52 52 53 54 53 53 53 52 52 52 52 53 53 53 54 55 56 56 57 57 58 58 58 58 57 56 55 53 52 52 51

GFSFLT2_sfc_dewp_054.txt.gz
Dewpoint
68 68 65 66 65 67 67 67 67 67 67 68 67 67 67 66 66 66 66 66 65 65 64 63 62 62 62 61 60 61 51 51
66 66 67 66 67 66 66 66 66 66 67 66 66 66 65 66 66 67 67 66 65 64 64 63 62 62 61 61 59 59 50 50
65 63 64 65 65 65 65 65 65 65 65 65 64 62 62 61 62 66 66 64 64 64 63 62 62 61 61 60 59 50 51 49
65 62 64 64 63 63 64 64 65 64 62 62 62 63 61 57 64 65 65 64 63 63 62 62 57 52 54 58 50 52 51 51
64 64 64 63 62 62 63 64 63 63 62 61 62 60 57 61 63 62 62 61 56 57 57 52 52 50 51 51 53 53 51 51
63 64 64 63 62 62 62 63 62 62 62 61 62 58 59 58 58 58 58 56 56 55 53 53 53 51 52 53 54 52 52 52
62 62 62 61 60 61 62 62 61 62 61 60 58 57 57 54 55 56 56 55 55 54 53 53 52 51 52 53 53 53 53 51
59 60 61 61 59 60 61 61 61 62 60 57 56 56 56 52 52 50 52 54 54 52 51 50 48 49 51 51 52 53 53 54
59 59 59 59 59 60 60 61 61 61 58 59 55 55 56 55 48 48 49 50 51 50 51 49 47 47 50 51 50 52 52 53
58 58 59 59 59 59 59 60 61 61 59 57 55 53 55 53 48 48 48 49 48 48 49 48 47 46 48 48 48 49 50 52
58 58 59 59 59 59 59 59 59 60 60 55 55 52 51 50 48 49 52 49 48 47 47 47 46 45 45 45 45 44 46 44
58 58 59 59 59 60 59 59 59 59 58 56 55 52 53 51 48 52 52 50 50 49 48 46 45 43 37 41 44 44 45 45
58 57 57 58 57 58 58 57 56 57 56 57 58 53 53 53 49 52 52 51 52 53 50 49 45 46 41 42 43 46 47 44
58 57 58 57 57 58 57 57 54 55 55 56 57 58 53 53 52 51 52 51 55 55 53 50 48 47 44 45 44 44 44 45
57 57 57 57 57 58 57 57 57 55 54 54 56 57 53 53 54 53 53 52 53 56 55 54 50 51 51 48 46 45 45 46
57 57 57 57 58 57 56 54 53 54 54 53 54 57 56 53 54 55 56 54 54 55 55 55 55 51 50 49 52 51 46 46
55 56 57 57 57 56 55 54 53 53 53 54 56 57 56 54 55 57 58 58 58 58 58 58 56 58 53 52 51 50 51 49
54 55 56 56 56 56 55 55 53 53 53 52 54 55 57 58 56 59 60 59 59 60 60 59 58 57 58 55 53 51 50 49
54 53 54 56 56 56 56 55 55 54 53 52 52 53 54 55 57 56 56 57 58 58 59 59 59 58 58 56 55 54 53 52
53 53 53 55 56 56 56 56 55 54 54 52 52 51 52 55 55 55 55 55 56 56 56 57 58 59 59 58 56 56 56 54

GFSFLT2_sfc_dewp_057.txt.gz
Dewpoint
69 69 67 67 66 67 67 68 68 68 68 68 67 67 66 66 67 67 66 66 66 64 64 64 63 62 61 60 59 60 50 50
68 68 67 66 68 66 66 67 66 67 67 67 67 66 66 66 66 66 66 66 65 64 64 63 62 62 61 60 58 58 50 49
65 66 66 66 65 66 66 66 64 66 67 66 65 63 64 64 64 66 65 64 64 64 63 63 62 61 60 59 60 49 49 50
65 65 65 65 65 64 65 65 65 64 64 65 63 64 63 60 65 65 64 64 64 63 63 62 57 50 52 57 52 50 50 51
64 63 63 64 64 65 64 67 66 65 62 61 62 64 62 64 65 64 61 61 58 57 57 51 50 48 52 53 52 52 50 51
63 62 62 63 64 64 64 63 63 63 62 61 62 62 62 64 61 61 59 56 55 53 51 53 51 50 52 53 53 50 50 52
63 63 63 63 62 63 63 63 62 62 61 61 62 60 61 61 61 60 57 56 54 53 52 51 51 51 52 53 52 52 52 51
61 62 62 62 62 62 62 63 62 61 60 60 61 59 60 60 60 57 55 55 53 51 51 50 48 50 52 53 52 52 52 53
59 61 62 60 60 61 62 62 62 60 60 61 60 58 59 59 57 56 55 55 54 52 52 49 47 48 50 51 51 53 52 53
59 59 60 60 60 61 61 61 61 60 60 61 58 56 58 58 53 52 51 53 51 49 49 46 46 47 49 49 49 51 52 53
58 60 60 60 60 60 60 60 60 60 60 57 57 55 53 54 50 53 53 51 50 48 49 48 46 46 47 48 48 48 50 48
59 58 59 59 59 59 59 59 60 60 58 56 55 52 53 55 54 57 53 48 48 48 51 49 47 46 41 44 46 45 46 46
59 58 59 59 58 57 57 57 58 58 59 55 56 53 53 55 53 57 56 52 51 53 49 48 46 47 42 42 44 46 47 45
58 57 58 58 58 58 57 57 57 57 57 59 56 56 52 53 54 53 55 52 55 55 54 49 45 46 41 41 41 43 45 47
57 57 57 57 58 59 58 57 56 55 55 55 56 57 53 53 55 55 55 55 55 57 56 54 49 49 51 46 44 42 45 48
57 57 57 57 58 57 57 55 53 53 53 52 52 57 56 53 54 56 57 55 56 58 56 56 55 51 52 50 55 53 49 48
57 57 57 57 57 57 57 55 55 53 53 53 54 57 58 56 55 57 57 56 57 58 59 59 57 55 54 53 53 52 53 50
56 57 57 57 57 57 57 55 54 53 53 53 54 55 57 57 55 57 59 60 60 59 60 60 59 58 59 55 55 52 51 53
55 55 56 57 57 56 57 56 55 55 54 53 52 55 56 57 58 57 58 60 60 59 60 61 61 60 59 59 57 55 54 52
53 54 54 57 57 56 57 56 55 55 55 54 54 53 55 57 58 58 59 59 60 59 59 59 59 59 60 58 58 55 55 54

GFSFLT2_sfc_dewp_060.txt.gz
Dewpoint
70 69 68 67 66 66 66 65 63 68 68 68 68 67 66 67 67 67 67 66 66 65 64 64 63 61 61 59 59 61 52 53
68 68 68 66 66 66 64 64 60 61 68 67 66 66 66 67 66 66 66 66 65 65 64 64 62 61 59 59 59 60 50 52
67 67 67 67 65 66 64 64 60 66 67 66 64 64 64 65 65 66 66 64 64 64 64 62 61 59 59 59 60 51 51 53
65 66 66 65 65 65 63 63 63 66 65 65 64 64 63 63 64 65 65 64 64 63 62 61 57 53 54 57 54 51 52 53
65 65 65 64 64 64 64 64 64 65 64 64 64 64 63 64 64 64 63 63 60 60 58 52 50 51 53 54 55 52 52 53
64 64 64 64 64 64 63 62 64 62 62 62 63 62 62 63 62 60 58 57 56 55 53 53 51 52 55 55 53 52 53 54
63 63 62 63 63 64 63 63 62 62 61 61 62 62 62 62 61 58 55 55 54 52 52 52 53 52 55 54 54 52 53 54
62 63 63 62 62 63 63 63 62 60 60 60 61 62 61 61 61 58 55 55 54 52 53 53 52 52 54 54 53 52 52 54
61 61 62 62 62 62 62 62 61 60 59 60 60 61 59 60 59 58 56 55 54 53 53 53 52 52 53 54 54 54 52 53
60 61 61 61 61 61 62 62 61 59 59 59 59 59 59 59 59 58 56 54 54 55 52 51 51 51 52 52 53 53 53 53
59 60 60 60 60 61 61 61 61 59 59 58 58 58 58 59 59 59 57 56 55 53 53 51 50 50 51 52 52 52 53 51
59 59 60 59 60 60 60 60 59 59 58 58 59 56 56 57 55 56 55 54 53 53 52 52 51 50 46 49 51 51 51 52
58 58 59 59 58 58 58 57 58 58 59 57 57 55 54 55 54 54 54 52 51 53 53 52 51 51 48 49 48 48 50 49
58 58 58 58 58 57 57 57 58 58 58 55 54 54 53 54 54 54 54 55 54 53 51 51 50 51 47 45 44 45 47 49
58 57 57 57 58 57 57 57 57 56 56 55 53 54 52 52 55 55 55 56 55 54 54 53 49 50 48 46 43 43 44 47
57 57 57 57 57 57 56 55 54 52 55 56 54 57 54 52 53 55 55 55 56 57 56 55 55 49 49 48 51 53 51 48
57 57 57 57 57 57 56 55 53 52 54 54 54 56 58 54 55 56 55 54 54 57 57 56 56 56 52 53 52 52 53 52
57 57 56 57 57 57 56 55 54 51 52 51 52 53 57 58 54 55 57 57 56 57 58 57 57 57 56 55 54 52 51 52
56 56 56 57 56 56 56 56 55 53 52 51 50 51 53 57 56 56 57 57 58 59 58 58 59 58 56 56 57 55 54 53
55 55 55 56 57 56 56 56 55 54 53 52 51 50 53 55 56 55 56 57 57 59 59 58 57 58 57 55 57 56 55 54

GFSFLT2_sfc_dewp_063.txt.gz
Dewpoint
68 66 67 67 66 66 65 66 65 66 67 68 68 67 67 67 67 67 67 66 66 65 65 64 63 62 60 61 59 59 55 55
66 65 66 65 65 65 64 63 62 63 63 65 67 66 66 67 67 67 66 66 65 65 64 63 62 60 59 60 59 59 54 54
64 64 65 65 65 64 63 62 62 63 63 62 65 65 65 65 66 66 66 65 64 64 63 62 60 59 59 59 58 53 54 54
63 63 65 65 65 63 63 62 61 62 62 62 65 65 64 64 65 65 65 64 64 63 62 61 57 53 53 56 52 53 54 54
62 64 64 64 64 62 62 61 62 61 64 65 65 65 64 64 64 63 63 63 61 59 58 53 51 51 52 52 52 53 54 54
62 63 63 63 64 63 62 62 63 62 64 64 64 64 63 63 62 62 61 60 58 57 54 52 49 51 52 54 52 53 53 55
62 63 62 63 63 62 62 63 63 63 63 63 63 63 62 62 60 59 57 57 55 53 52 51 49 50 52 52 52 53 53 55
62 62 62 62 62 62 62 63 62 62 62 62 61 62 62 61 57 55 55 54 52 51 52 51 50 50 53 53 53 53 53 55
61 62 62 62 61 62 62 62 60 59 60 60 60 61 60 61 56 54 55 54 50 51 52 52 52 53 52 53 53 53 54 54
61 62 62 61 60 61 62 61 59 58 59 59 60 59 60 61 58 54 56 53 53 52 53 51 52 52 52 52 53 53 53 54
59 60 60 60 61 61 61 61 60 59 59 59 60 59 58 61 60 58 56 55 55 53 52 50 50 51 51 51 52 53 53 53
59 60 60 60 60 61 61 61 61 59 58 58 59 58 58 60 59 59 58 57 55 52 51 50 50 51 49 50 51 52 53 53
58 59 59 59 59 58 59 58 58 58 58 57 58 57 56 55 56 56 55 57 53 50 52 50 50 50 48 49 48 50 50 50
58 57 58 58 58 58 58 58 58 58 58 58 57 56 54 54 54 55 54 55 54 52 50 50 50 50 47 46 43 44 46 48
57 57 57 57 58 58 58 58 57 57 57 57 55 54 53 53 53 53 53 53 53 51 50 48 48 49 47 45 43 42 43 45
57 57 57 57 57 57 56 55 54 54 55 54 53 54 53 52 53 53 53 55 54 52 50 52 50 47 48 48 48 50 47 46
57 57 57 57 56 56 55 54 53 54 55 55 54 53 53 52 54 54 53 54 55 55 54 52 54 53 48 47 48 51 52 50
56 56 56 57 56 56 55 54 53 52 53 54 54 54 54 54 53 55 54 53 54 57 56 54 54 55 54 53 51 49 50 50
55 56 56 56 56 55 55 54 53 50 53 53 53 53 55 56 54 54 55 55 53 55 57 57 55 56 56 55 55 55 54 52
55 55 55 56 56 56 55 55 54 51 51 53 53 52 53 55 56 54 55 56 57 57 57 57 57 57 56 56 55 56 55 53

GFSFLT2_sfc_dewp_066.txt.gz
Dewpoint
67 68 68 67 67 67 67 68 67 67 65 68 69 68 67 68 68 68 67 66 67 66 65 64 63 63 62 61 60 59 54 55
66 66 67 66 65 66 66 66 66 65 64 64 64 67 67 67 67 67 66 66 66 66 64 63 62 62 61 61 60 59 54 54
63 64 65 65 64 65 65 65 66 65 64 63 61 65 65 66 65 66 66 65 65 64 63 62 61 61 61 60 58 54 54 55
62 63 63 64 64 62 62 63 63 62 62 62 61 64 65 65 65 65 65 64 64 63 62 61 57 55 57 58 54 54 54 55
62 62 64 64 63 63 61 60 61 61 61 60 61 65 64 65 64 63 63 63 60 60 59 53 52 52 53 53 54 54 54 55
61 62 64 64 63 62 61 60 59 60 61 60 63 64 64 63 61 62 61 60 58 57 54 51 50 52 53 53 53 54 54 55
61 63 63 64 63 62 60 60 62 60 63 61 63 63 63 62 61 61 60 59 57 54 52 49 50 52 53 53 53 53 54 55
60 62 63 63 62 62 60 62 62 63 64 63 63 63 62 61 60 58 58 57 55 52 51 48 49 51 53 53 53 53 54 55
60 60 62 62 61 61 62 62 62 62 63 63 62 62 61 60 57 56 56 54 51 51 52 50 49 51 53 53 53 53 54 55
61 62 62 62 62 62 61 61 60 60 61 61 62 62 60 58 55 54 53 52 49 51 52 51 50 52 53 53 53 53 54 54
60 61 61 61 61 62 61 59 59 60 60 60 60 60 60 57 55 55 52 51 49 51 53 51 51 52 52 53 53 53 54 53
59 60 61 60 61 61 61 60 59 58 59 58 59 58 60 60 56 57 53 52 50 52 52 52 51 52 50 51 52 53 53 53
58 59 60 60 60 59 59 59 59 59 59 58 59 58 58 60 57 57 56 55 53 52 51 50 51 52 50 49 49 52 53 53
57 59 59 59 59 59 59 59 59 59 58 58 58 58 57 58 58 56 57 57 55 52 51 50 50 51 49 48 46 45 48 51
56 58 58 58 58 58 57 58 58 57 58 58 59 58 55 54 57 55 56 56 54 51 51 49 49 50 49 48 43 43 44 45
56 57 57 57 58 57 57 55 55 56 57 57 58 57 55 54 55 54 55 55 55 53 51 49 49 48 48 47 46 47 44 42
56 57 57 57 57 57 56 56 56 56 56 56 57 57 55 53 53 55 53 55 56 55 52 50 49 51 48 47 47 50 50 48
56 56 56 56 57 57 55 55 54 54 55 54 55 54 53 54 52 53 54 54 55 55 53 50 50 50 52 50 48 47 49 49
55 55 55 56 56 56 55 54 53 53 54 54 53 53 52 53 53 54 54 54 54 56 55 52 51 53 53 51 52 51 51 51
55 55 55 56 56 55 55 54 53 52 53 53 53 53 52 53 53 53 54 53 53 54 56 56 54 55 55 55 54 55 54 53

GFSFLT2_sfc_dewp_069.txt.gz
Dewpoint
67 69 70 69 68 68 67 67 68 69 69 68 68 68 68 68 68 68 68 67 67 67 66 64 65 64 63 62 61 60 55 55
65 66 66 64 65 66 66 66 65 66 66 66 66 66 67 67 67 67 67 67 66 65 64 64 64 63 62 61 60 59 54 55
63 64 64 64 65 67 66 65 64 64 66 65 63 64 66 65 66 66 67 65 65 64 63 63 63 62 61 61 58 54 54 54
62 62 63 63 65 65 65 63 64 63 64 63 62 64 65 64 65 65 65 65 64 63 63 63 61 58 58 58 54 54 55 55
61 62 64 63 62 62 63 64 64 63 62 62 62 63 64 64 64 64 63 63 60 59 58 56 57 56 54 54 54 54 55 55
61 63 63 63 62 61 61 61 62 61 61 60 62 62 63 64 63 62 61 60 59 56 52 52 53 53 53 54 54 54 55 55
62 62 62 63 62 62 60 60 60 60 60 60 62 62 63 64 62 61 59 58 57 54 51 51 52 53 53 53 53 54 55 55
61 61 63 63 62 61 60 59 60 60 61 60 62 62 63 62 60 60 59 57 56 53 49 50 52 53 53 53 53 54 55 55
60 61 62 63 62 61 61 62 62 61 61 60 62 63 63 61 60 59 58 56 53 52 50 49 51 53 52 53 53 54 55 55
59 61 61 62 61 61 62 61 61 62 62 62 61 63 62 60 58 57 57 54 53 51 51 49 50 53 52 53 53 54 54 55
59 61 60 61 61 61 61 60 60 60 61 62 62 61 60 58 56 55 55 53 52 50 52 50 50 53 53 53 53 53 54 54
59 59 61 61 61 61 60 60 59 60 60 60 62 61 59 57 55 55 53 50 50 51 51 51 51 52 52 53 53 53 54 53
59 58 60 60 60 59 59 58 58 59 58 59 60 61 59 56 55 54 52 48 49 52 51 50 51 52 51 50 51 53 53 53
58 57 59 60 60 60 60 60 59 59 58 58 59 59 60 57 55 55 52 51 52 52 51 50 50 51 50 49 48 48 51 52
57 57 57 58 60 58 58 58 58 58 58 58 59 59 59 60 56 56 55 53 53 52 51 50 49 50 50 49 45 47 47 48
56 57 57 58 58 58 57 57 56 57 58 58 59 58 58 58 59 57 57 56 55 53 51 50 50 49 48 48 47 48 47 45
56 56 57 57 57 57 57 55 55 57 57 57 58 58 57 56 57 57 56 57 56 55 52 49 50 51 48 48 48 49 49 48
55 55 55 56 56 56 55 55 55 56 56 56 57 58 57 56 57 56 56 56 56 56 54 52 51 51 51 50 49 49 49 49
55 55 55 55 56 56 55 54 55 55 55 56 56 56 56 55 55 56 55 56 56 57 56 55 52 51 51 50 51 50 50 50
54 54 54 55 56 56 56 55 55 54 55 55 55 55 55 54 55 56 56 56 56 56 56 55 55 53 52 52 50 50 51 50

GFSFLT2_sfc_dewp_072.txt.gz
Dewpoint
67 68 69 70 69 67 66 67 68 69 68 68 68 68 68 67 67 68 68 68 68 67 67 66 66 65 64 63 62 61 57 57
65 68 69 66 65 66 66 66 66 67 67 65 65 66 66 67 66 67 68 67 67 67 66 66 65 64 63 62 61 59 56 56
63 66 65 64 64 65 66 66 67 66 66 65 65 65 65 65 65 66 67 66 66 65 65 65 64 63 62 61 58 54 54 54
61 62 63 63 65 66 65 64 64 64 65 64 64 64 65 64 65 65 65 65 64 63 64 64 61 59 59 58 54 55 54 55
61 62 63 63 63 64 63 64 63 63 64 63 63 63 64 64 63 64 64 64 60 61 62 59 58 57 55 55 55 55 55 56
60 63 63 62 63 63 63 63 63 63 63 62 63 63 64 62 63 63 63 60 58 60 58 57 57 55 54 54 55 55 56 56
61 63 63 63 62 62 62 62 62 62 62 61 62 62 62 61 62 62 61 59 56 54 54 55 54 54 54 54 54 55 55 56
61 61 62 62 61 61 61 61 61 61 61 61 62 61 63 61 62 61 59 58 55 52 53 53 53 54 54 54 54 55 55 56
60 61 61 61 61 61 60 60 61 61 61 61 62 62 62 62 61 60 59 57 54 51 50 53 53 53 53 54 54 55 55 56
60 60 61 61 61 61 61 61 61 60 61 61 61 62 63 62 61 59 57 56 53 50 50 52 53 53 53 53 54 54 55 55
59 60 60 60 61 61 61 61 61 62 61 62 61 62 62 61 60 59 56 55 53 50 50 51 53 52 52 53 54 54 54 55
59 60 60 60 61 61 60 60 60 60 61 61 61 63 61 60 58 57 56 54 53 51 50 51 53 53 52 52 53 54 54 54
58 59 61 61 60 59 59 58 58 59 60 61 61 61 59 57 56 55 53 52 52 51 50 50 52 53 52 51 51 53 53 54
57 57 60 61 60 59 59 59 59 59 59 60 61 60 58 57 56 53 52 50 51 51 50 50 52 53 51 50 48 50 52 53
56 57 59 60 60 59 59 58 59 58 58 59 59 61 59 58 57 53 52 49 50 52 51 50 50 51 52 50 47 48 49 51
56 56 57 59 59 58 57 57 56 58 58 59 59 60 60 58 57 56 52 51 52 51 52 51 51 50 49 49 49 49 49 47
56 56 57 58 59 58 58 57 57 57 58 58 59 59 59 59 57 57 55 55 55 54 53 51 51 51 50 48 48 49 49 48
56 55 54 56 57 58 57 56 55 56 56 57 58 57 58 58 59 57 57 57 56 55 54 52 52 52 51 50 50 48 48 49
55 54 54 54 56 56 56 56 55 55 56 56 56 57 56 56 58 57 58 56 57 56 54 53 52 52 52 50 52 51 52 50
55 54 54 54 54 54 55 54 54 55 56 56 57 57 57 56 57 57 57 57 57 57 56 55 55 54 53 53 51 51 51 50

GFSFLT2_sfc_dewp_075.txt.gz
Dewpoint
69 69 70 69 68 69 68 68 68 69 69 68 68 67 68 67 67 68 68 68 68 68 67 67 67 66 64 63 62 62 59 59
69 68 69 70 71 67 67 67 67 67 67 67 66 66 66 66 66 67 67 68 67 67 67 66 66 65 63 62 62 61 58 57
68 67 69 69 70 68 67 67 67 67 67 66 65 65 65 65 65 66 67 66 66 66 66 65 64 63 63 61 60 57 57 57
67 67 67 67 68 68 68 67 68 67 66 65 66 65 65 64 64 65 65 66 65 65 65 64 62 60 59 59 56 57 56 57
66 66 66 66 65 67 67 67 68 67 65 65 66 66 65 65 65 65 64 65 64 64 63 60 61 59 58 57 57 56 56 55
65 65 65 64 65 64 66 65 65 65 66 65 65 65 64 63 63 64 64 64 63 63 61 61 60 59 58 57 57 55 55 55
63 64 64 64 63 64 64 64 65 64 64 64 63 64 64 63 62 64 63 61 62 61 60 59 59 57 57 56 56 56 56 54
62 62 64 64 63 63 63 64 64 63 63 63 63 64 64 62 63 63 61 60 60 59 58 58 57 56 56 56 56 56 56 56
61 62 63 63 62 62 62 62 63 63 62 63 63 63 63 62 62 62 61 59 57 57 57 57 56 55 55 56 55 56 55 56
61 61 62 62 62 61 62 62 61 62 62 62 62 62 63 62 61 61 61 57 56 55 56 55 55 54 54 54 54 55 55 56
60 61 61 61 61 61 61 62 62 61 62 61 62 62 63 63 61 61 59 57 55 54 55 56 55 54 53 54 54 54 55 55
60 61 61 61 61 61 62 62 62 62 62 61 61 63 62 62 61 59 59 57 54 53 55 55 55 54 51 53 54 54 55 55
59 60 60 61 60 60 60 59 61 61 62 62 61 61 63 61 59 58 59 57 55 55 54 55 54 55 53 53 54 55 55 55
59 60 60 61 59 59 60 60 60 60 61 62 63 61 61 60 59 58 57 57 56 55 55 54 54 55 52 52 50 52 53 54
59 59 60 60 61 60 60 60 59 59 59 60 60 60 59 58 58 57 56 56 55 54 54 54 52 54 55 52 50 49 51 53
58 58 59 60 60 59 59 57 57 58 59 59 60 60 59 58 56 56 55 55 55 55 53 53 53 53 54 52 54 53 50 50
57 57 58 59 60 59 58 57 57 58 59 59 59 60 59 58 57 56 54 53 55 55 55 54 54 54 53 52 52 51 53 52
56 57 57 59 59 59 59 58 57 57 58 58 59 59 60 58 58 57 55 54 54 54 54 55 54 55 54 54 52 50 49 49
56 56 56 57 58 59 58 57 57 57 57 58 58 58 58 59 58 58 57 56 55 55 54 54 54 54 56 53 54 53 53 49
55 55 54 55 56 58 58 57 57 57 57 57 57 58 57 58 59 58 57 57 57 56 55 54 54 56 56 56 53 54 53 52

GFSFLT2_sfc_dewp_078.txt.gz
Dewpoint
71 70 69 69 68 69 69 69 69 69 69 68 69 68 68 67 68 67 68 68 69 69 68 68 67 66 65 64 63 64 59 58
70 70 70 70 70 68 68 68 68 68 68 67 66 67 68 68 66 67 67 68 68 68 68 67 66 65 64 63 63 63 58 57
70 69 69 70 70 69 68 68 68 67 67 67 66 67 67 67 66 66 67 67 67 67 67 66 65 64 63 62 62 56 56 55
68 68 68 69 68 70 69 68 66 66 67 68 67 66 66 64 65 66 66 66 66 66 65 64 63 61 60 61 56 57 55 54
66 69 68 69 69 68 67 65 66 68 67 67 67 65 64 62 64 66 66 65 66 65 64 62 62 60 59 58 56 58 54 54
64 66 66 68 68 67 67 66 65 67 66 67 65 64 64 63 63 64 65 66 65 66 65 64 62 59 59 58 58 55 53 52
63 66 66 66 66 66 66 66 65 66 66 66 64 63 63 65 65 65 64 65 64 66 63 62 61 59 58 58 57 55 55 52
63 65 65 66 65 65 66 65 65 66 66 66 65 64 64 63 63 64 64 63 64 64 61 62 59 57 58 57 56 54 54 53
64 65 64 65 64 64 64 65 65 65 64 65 64 64 65 63 62 64 63 63 63 63 61 60 57 56 57 56 55 54 52 53
63 63 65 65 64 63 63 64 65 65 64 65 64 63 64 63 62 62 62 61 62 62 59 58 57 55 55 54 54 53 53 53
62 63 63 64 63 63 63 63 64 63 63 63 64 63 63 63 63 63 61 60 61 60 58 57 56 54 54 53 54 53 53 50
62 62 63 63 63 63 62 63 63 63 62 63 63 63 63 63 63 61 61 59 59 59 59 58 55 54 51 52 54 54 54 53
61 62 62 62 62 61 61 62 62 62 62 62 62 62 63 63 62 60 61 58 58 58 57 57 55 55 52 53 54 54 55 53
60 61 61 61 60 59 60 61 62 62 62 62 62 63 63 62 61 60 59 58 58 59 58 55 55 55 52 52 51 53 54 55
59 60 61 61 60 59 61 61 61 61 61 61 62 63 61 61 61 60 59 59 58 58 58 57 54 55 54 50 49 47 51 53
59 60 59 60 59 59 59 58 57 59 59 60 61 61 60 60 60 60 59 60 58 58 56 57 55 54 54 51 51 48 48 51
60 60 59 59 58 59 57 58 58 58 59 60 60 60 59 59 59 59 59 59 60 59 58 57 56 54 54 54 54 53 52 47
59 59 58 59 58 59 59 58 58 58 59 59 59 59 59 59 58 58 58 57 58 59 58 57 56 55 55 55 52 51 50 48
58 58 57 58 58 57 58 58 58 57 58 57 59 59 59 58 58 57 56 56 57 57 58 57 56 55 56 54 55 53 51 49
57 57 56 57 57 56 59 58 58 57 58 58 59 59 59 60 59 57 57 55 55 56 56 56 57 57 57 56 55 55 53 52

GFSFLT2_sfc_dewp_081.txt.gz
Dewpoint
70 70 69 69 69 70 70 70 70 70 70 69 69 68 69 69 68 68 68 67 68 69 69 68 68 67 66 65 64 65 62 61
70 70 70 70 70 69 69 70 69 69 70 68 68 68 67 68 68 67 67 68 67 68 68 67 67 66 65 63 63 62 58 58
70 70 70 70 69 68 69 69 69 68 68 67 66 67 67 67 65 65 66 66 66 67 67 66 65 64 64 63 62 55 58 57
69 69 69 69 65 70 68 68 67 67 65 67 67 68 66 65 63 64 66 66 67 67 66 64 64 63 61 62 59 59 53 53
65 69 69 69 66 69 67 66 65 68 67 67 68 69 66 67 65 65 67 67 67 66 65 66 64 63 61 59 58 56 52 55
63 66 66 67 64 68 66 65 67 65 66 67 68 67 66 66 64 65 65 66 66 65 66 66 63 62 60 58 59 53 52 57
62 64 65 65 68 68 67 64 64 67 66 67 67 65 65 63 62 64 63 65 65 65 65 65 62 60 58 58 54 54 53 54
62 65 65 66 66 66 66 67 66 66 66 66 66 66 64 64 62 63 65 65 64 63 64 64 62 59 57 56 55 53 53 53
62 66 66 65 65 65 65 66 67 66 66 67 65 65 65 64 64 64 64 64 63 63 63 64 59 57 56 57 53 53 52 52
61 63 65 64 64 64 64 65 66 66 66 67 65 64 65 64 63 63 64 63 63 63 62 62 59 55 55 53 52 51 52 52
61 64 64 64 64 64 63 64 65 66 66 65 65 64 64 64 63 63 63 63 62 62 62 61 57 56 55 52 54 51 51 49
62 63 64 64 63 62 62 63 63 64 63 64 64 65 64 64 63 62 62 62 61 62 61 60 56 55 51 52 57 54 50 50
61 62 63 62 61 61 61 61 61 62 63 63 63 64 64 64 62 61 61 61 61 61 60 58 58 56 55 54 57 57 57 50
61 61 62 61 59 59 59 61 61 61 62 63 62 62 63 62 62 61 61 60 59 59 60 58 56 56 53 52 53 53 55 55
59 61 61 61 60 59 60 61 61 60 61 62 61 62 62 63 62 61 60 59 58 58 59 57 55 57 55 51 49 48 51 55
59 60 60 60 60 59 59 59 57 59 59 61 61 61 62 62 61 60 60 59 58 59 60 59 57 54 55 52 53 48 48 51
59 60 59 59 59 59 57 56 57 58 58 60 61 61 61 61 61 60 59 59 59 59 59 59 57 56 54 54 54 53 54 50
59 59 58 59 59 58 58 57 57 57 58 59 60 60 59 59 60 60 60 59 59 59 59 59 58 57 56 55 53 53 51 49
59 58 57 59 59 58 57 57 59 58 58 59 59 58 58 58 58 58 59 60 60 59 59 59 59 57 57 55 55 55 53 52
58 57 57 58 58 58 57 57 57 57 58 57 59 59 59 59 58 58 58 58 59 59 59 58 59 59 58 57 56 56 55 54

GFSFLT2_sfc_dewp_084.txt.gz
Dewpoint
71 69 69 70 69 70 70 70 70 71 71 70 71 69 68 69 68 68 68 68 68 68 69 69 69 68 67 66 65 65 64 66
71 70 70 69 70 69 69 70 69 70 70 69 68 68 68 68 68 66 67 67 67 68 68 68 67 66 66 65 64 65 63 64
71 71 70 70 70 69 69 70 69 69 69 68 67 68 68 68 67 67 67 66 66 67 67 66 65 65 64 63 63 60 61 60
69 70 71 70 66 69 69 69 68 68 68 68 68 68 67 67 66 66 66 66 66 67 66 65 64 64 64 63 60 59 60 60
69 69 70 70 68 70 69 68 68 68 68 68 68 68 66 64 63 64 65 66 66 66 65 65 65 64 63 63 60 59 59 59
68 68 68 69 68 68 68 68 68 67 68 67 68 67 64 64 63 64 65 65 66 65 65 65 64 64 61 61 60 56 59 59
64 68 68 68 68 68 68 68 67 67 68 67 67 67 65 65 64 64 64 65 65 65 64 64 64 63 61 59 56 55 58 59
64 66 67 67 67 68 68 68 68 68 68 66 66 66 65 64 64 64 64 64 65 64 64 64 63 62 61 58 55 54 56 57
64 66 67 66 66 67 67 67 67 66 66 66 66 66 65 63 63 63 63 64 64 63 63 63 63 63 59 57 55 54 53 56
63 65 66 66 66 66 65 65 67 66 66 66 66 64 65 64 63 63 64 64 63 62 62 62 62 61 56 55 53 53 53 54
63 65 65 66 66 65 64 64 66 66 66 66 65 64 64 64 63 64 63 63 62 62 62 62 61 60 54 54 53 52 53 51
64 64 65 65 65 64 63 64 65 65 65 64 64 64 64 64 63 63 63 62 62 62 61 62 60 58 51 53 54 52 52 53
64 64 64 64 63 61 62 61 62 63 63 63 64 64 64 64 63 62 62 61 61 61 61 60 60 57 55 55 55 55 53 52
63 63 63 63 62 61 60 60 62 61 62 62 63 64 64 63 63 62 61 61 61 60 60 59 59 58 52 53 51 53 55 54
62 62 63 62 61 61 60 61 61 59 61 62 62 63 62 63 63 61 61 61 60 60 60 59 57 58 53 51 51 49 52 55
61 62 61 62 61 59 59 58 58 58 59 62 62 62 62 62 62 61 61 60 60 60 60 59 58 55 56 53 52 51 49 50
61 62 61 61 60 60 59 58 58 59 60 60 60 61 62 62 61 61 60 60 59 59 60 59 59 56 53 54 52 53 51 51
61 61 60 60 60 60 60 58 57 58 59 59 60 60 59 60 61 60 60 60 59 59 60 59 59 58 56 55 54 53 52 52
60 60 59 60 60 60 59 59 58 58 58 59 59 59 58 59 59 59 59 59 59 58 59 59 59 58 55 55 55 54 53 53
59 59 58 59 60 59 59 59 58 58 59 59 59 59 58 59 59 59 59 59 59 59 58 59 59 58 57 56 56 56 55 54

GFSFLT2_sfc_dewp_087.txt.gz
Dewpoint
68 69 70 70 69 69 70 70 71 71 71 71 71 70 69 69 69 68 68 68 68 68 69 69 69 68 67 66 65 66 65 66
68 67 68 68 68 69 69 69 69 69 70 69 69 69 69 69 68 68 68 67 66 68 68 68 68 67 66 65 64 66 65 65
68 68 68 68 67 68 69 70 69 69 69 68 67 67 67 68 65 66 66 65 66 67 67 67 66 66 65 65 64 63 64 64
68 68 68 68 69 67 67 68 68 67 67 66 67 66 66 66 65 66 66 66 66 66 67 66 65 64 64 64 62 60 62 64
68 67 69 68 67 67 68 67 67 67 66 66 67 66 65 65 65 65 65 66 65 66 66 65 65 64 62 62 62 61 62 63
67 67 68 68 67 68 68 67 67 66 66 66 66 65 64 63 62 63 64 65 65 64 65 65 64 63 62 62 61 59 60 61
67 67 68 67 66 66 66 67 67 66 66 66 66 65 64 63 62 63 64 64 65 64 64 65 64 63 61 61 59 59 59 61
68 66 67 67 66 65 65 66 66 66 66 66 66 65 64 63 63 62 63 64 65 64 64 64 64 64 62 61 58 58 58 60
67 66 67 66 66 65 65 65 65 65 65 65 65 65 64 64 64 63 63 64 64 63 62 62 63 63 62 61 57 57 58 59
66 66 66 65 66 65 64 64 64 64 64 65 65 65 65 63 63 63 63 63 63 62 62 61 62 62 61 61 55 56 57 58
64 65 65 64 65 64 63 64 64 63 64 64 64 64 64 63 62 62 63 63 62 61 61 61 61 61 61 59 52 54 55 57
64 64 64 64 64 63 62 62 64 62 62 63 65 64 63 62 61 62 62 62 61 60 61 61 61 61 61 57 51 52 53 56
63 63 64 63 62 61 61 60 63 61 61 62 62 62 63 61 62 62 62 61 61 61 61 60 60 61 57 55 53 51 50 54
63 63 64 62 62 61 60 60 61 60 60 61 63 62 62 62 62 62 61 61 61 61 60 60 60 60 55 52 51 52 53 52
62 63 63 62 61 61 60 60 59 59 60 60 62 63 62 62 62 62 61 61 61 61 60 59 58 59 57 51 49 48 52 54
62 62 62 61 61 59 59 59 58 58 59 61 61 61 62 62 62 62 61 61 61 60 60 59 59 57 56 52 52 52 48 49
62 62 62 60 60 59 58 57 57 57 58 59 60 61 61 61 61 61 61 61 61 61 60 59 59 58 55 53 51 52 52 51
61 61 61 60 59 59 58 57 57 57 57 58 58 60 60 61 61 61 61 61 60 60 60 59 59 58 57 55 52 52 51 51
60 60 60 59 59 58 58 58 56 57 58 58 59 58 57 58 60 60 60 60 60 60 60 59 59 58 57 56 56 53 53 53
60 60 59 59 59 58 59 58 57 58 59 59 58 58 57 58 58 60 59 60 59 59 60 59 59 58 57 57 57 56 55 54

GFSFLT2_sfc_dewp_090.txt.gz
Dewpoint
68 69 70 70 69 69 69 70 71 71 71 71 71 71 70 70 70 70 69 69 68 68 68 68 67 68 67 66 66 66 66 66
67 67 68 68 69 68 69 70 70 70 70 70 69 70 70 69 69 69 68 68 68 68 67 68 66 66 66 65 65 66 66 65
67 67 67 67 67 68 69 69 69 69 69 68 67 68 68 68 67 68 67 66 67 67 66 66 66 66 65 65 65 65 65 65
66 66 66 66 68 67 67 68 68 68 68 67 67 66 66 66 65 66 65 65 66 67 66 66 66 66 65 64 63 64 64 64
67 66 67 67 67 66 66 68 67 66 66 65 65 66 66 65 64 65 64 65 65 66 66 65 65 64 64 62 62 62 63 64
68 67 67 67 68 66 66 66 66 66 65 65 66 65 64 65 64 63 64 64 64 64 64 65 65 64 63 62 61 61 63 64
67 68 68 68 67 67 66 66 66 66 65 66 66 64 63 63 62 63 63 64 64 63 63 64 64 64 63 61 60 60 62 63
67 66 68 67 67 66 66 67 66 65 65 66 65 64 63 62 61 63 63 63 63 63 62 63 64 64 63 61 59 60 61 62
66 66 67 67 66 66 66 65 66 66 65 65 65 64 63 62 61 62 63 63 63 64 63 62 62 63 63 61 60 59 60 61
66 66 66 66 66 66 65 65 65 65 65 65 65 64 64 63 62 61 63 64 63 63 62 61 61 61 61 61 60 59 59 60
65 66 66 66 65 65 65 64 64 63 64 64 64 64 64 63 63 63 63 63 63 62 62 61 60 60 61 61 59 58 58 59
65 65 66 65 65 64 64 64 63 64 63 64 63 64 63 63 62 62 63 63 62 62 61 60 60 60 61 61 56 56 57 58
63 65 65 65 64 63 62 62 62 62 62 62 63 63 63 62 61 62 63 62 61 60 60 59 60 61 60 57 55 56 56 57
63 64 64 64 64 62 61 61 61 63 61 61 61 61 61 61 61 62 62 61 61 60 59 59 59 61 58 55 52 53 53 55
63 63 63 63 63 61 60 59 59 60 61 59 60 61 61 61 62 62 61 61 60 61 60 59 58 59 59 55 51 49 52 53
62 63 63 62 61 60 59 58 57 59 60 58 59 60 60 61 62 61 61 61 60 60 60 59 59 57 57 58 55 53 49 50
62 63 62 61 61 60 59 58 57 58 58 58 58 59 60 61 61 61 61 61 61 60 60 59 59 57 56 55 53 53 52 49
62 62 61 61 60 60 59 58 57 57 58 58 59 59 60 61 61 61 61 61 60 60 60 59 59 58 57 55 53 52 51 51
62 62 60 61 59 59 58 58 57 57 57 58 59 59 59 60 61 61 61 61 61 61 60 60 59 58 57 56 55 53 50 53
62 61 60 59 59 58 58 58 57 57 58 59 58 58 58 59 60 60 60 60 60 60 60 60 59 59 57 57 57 56 54 54

GFSFLT2_sfc_dewp_096.txt.gz
Dewpoint
69 70 70 70 69 69 69 70 70 70 71 71 71 71 71 71 71 71 71 70 69 69 69 69 69 69 68 66 66 67 66 66
68 69 70 69 69 68 69 69 69 69 70 70 70 70 70 70 70 70 70 69 69 69 68 68 68 68 66 66 66 66 66 65
67 67 67 68 69 69 69 70 69 69 69 69 68 68 68 69 69 69 69 67 68 68 68 67 67 67 66 66 66 66 65 65
66 66 66 66 67 68 68 69 69 69 69 68 68 67 67 67 67 68 68 67 67 67 67 66 65 65 65 66 65 65 65 64
65 64 65 65 65 67 68 67 68 68 68 67 66 66 66 65 66 65 65 66 66 65 64 63 63 64 65 64 64 64 65 64
64 65 65 65 66 66 66 66 66 67 66 65 67 67 66 64 65 63 63 63 64 64 64 63 63 64 64 64 63 64 64 64
65 65 65 65 65 65 65 65 66 66 66 66 67 67 66 65 64 64 62 62 63 63 62 63 63 64 64 63 63 63 63 64
66 65 65 64 65 65 64 65 65 65 66 66 67 66 65 64 64 64 63 63 62 62 62 63 63 63 63 63 63 63 63 63
62 66 65 64 65 64 64 65 64 64 64 65 65 65 64 63 63 62 62 62 62 60 62 62 62 63 62 63 62 62 63 63
48 65 66 65 65 65 64 64 64 64 64 65 65 64 63 63 62 62 62 62 62 61 61 61 62 61 62 62 62 62 62 62
44 62 66 66 65 65 65 64 64 64 64 64 64 63 63 62 62 62 62 62 62 62 61 61 60 61 61 61 61 61 61 62
31 56 65 66 66 66 66 65 65 65 64 64 64 63 62 62 62 62 62 62 62 62 61 61 61 61 61 60 60 61 61 61
27 47 63 66 66 64 64 63 64 65 64 64 64 63 63 63 62 61 62 61 61 61 61 60 60 61 59 57 57 59 60 60
45 37 59 65 64 65 64 64 64 64 64 64 64 64 63 63 62 62 61 61 61 61 61 60 60 61 58 56 53 55 57 59
48 50 54 64 64 65 61 63 62 61 62 63 63 64 63 63 62 61 61 61 60 61 61 60 59 60 59 56 51 51 54 56
47 50 53 63 64 64 62 61 60 61 62 62 63 63 63 63 62 61 60 62 61 61 61 60 59 58 58 58 56 55 53 51
47 50 55 62 64 63 62 61 61 61 61 56 60 62 62 62 62 60 61 61 61 60 60 60 60 58 58 57 56 55 55 53
45 49 58 63 63 63 61 60 58 60 61 60 61 61 61 62 62 61 61 60 60 60 60 60 59 59 59 58 56 54 53 53
44 47 54 63 62 62 61 60 58 59 60 60 60 60 60 60 60 60 60 60 60 60 60 60 60 59 58 58 57 55 55 54
43 46 50 62 62 61 61 58 58 58 59 59 59 60 60 60 60 60 59 59 60 60 60 59 59 59 59 58 57 56 55 55

GFSFLT2_sfc_dewp_099.txt.gz
Dewpoint
71 72 71 70 69 69 69 69 70 70 70 71 71 71 71 71 71 71 71 71 70 70 69 69 69 69 68 67 67 67 68 69
69 70 71 71 72 69 69 69 69 69 70 70 70 70 70 71 70 71 71 69 69 69 69 69 69 68 68 67 66 67 68 68
68 69 69 70 70 71 69 69 69 69 70 69 69 70 71 70 70 69 69 68 68 68 68 68 68 67 67 66 66 68 68 68
67 68 68 69 67 69 71 70 70 70 70 71 71 71 70 70 69 68 68 67 67 67 67 67 66 68 67 67 67 67 67 67
66 66 67 67 67 67 68 68 68 70 70 69 71 71 70 70 71 69 70 68 69 67 67 67 67 67 66 67 66 66 66 66
65 66 65 66 66 66 66 67 68 68 68 69 69 69 69 69 68 68 69 68 68 68 68 68 66 66 66 66 65 65 65 66
66 66 66 66 66 66 66 66 66 66 68 68 68 68 67 67 67 67 67 67 66 67 67 66 66 65 66 65 64 64 64 65
62 66 66 66 66 66 65 65 66 66 67 67 68 67 67 66 66 66 65 65 66 66 65 65 65 65 64 64 64 64 63 64
39 62 67 67 66 66 66 66 65 64 66 67 67 67 67 66 65 65 64 64 64 64 63 64 64 65 64 64 64 63 63 63
40 37 63 68 67 66 67 66 66 65 65 66 67 66 66 66 65 65 65 64 64 63 63 62 63 63 62 63 64 63 63 63
46 42 49 64 67 67 67 66 66 65 65 65 66 66 65 65 64 64 65 64 64 62 62 62 62 62 62 63 63 62 62 63
50 48 44 58 66 67 67 66 67 66 65 64 65 66 64 64 64 64 64 64 63 62 61 62 62 62 61 62 62 62 62 62
49 50 51 47 64 64 63 63 64 65 65 65 65 65 64 63 63 63 63 63 62 62 61 61 61 62 60 59 59 61 61 62
48 49 50 49 57 63 63 63 64 65 66 65 65 64 64 63 62 62 63 62 62 62 61 60 61 62 59 57 54 56 59 61
45 48 49 51 53 62 64 64 65 64 65 64 65 64 63 63 63 63 62 62 62 62 62 60 59 61 60 57 53 53 55 58
43 45 48 51 54 60 62 60 59 62 63 64 64 64 63 63 63 63 62 62 62 62 62 61 61 59 60 60 58 57 54 53
42 44 46 50 55 59 62 61 62 63 64 63 63 64 62 59 59 62 62 62 62 62 62 61 61 60 59 58 57 57 57 55
41 43 45 48 56 59 62 62 62 63 62 62 63 62 59 59 61 62 62 62 62 63 62 61 61 60 60 59 57 55 55 56
41 42 44 47 52 61 62 62 62 63 62 61 60 59 58 59 62 61 62 62 62 62 61 62 61 60 59 59 59 58 58 56
40 42 43 47 50 62 63 62 62 63 63 60 60 59 60 62 62 62 62 62 61 61 61 61 61 60 60 59 59 59 58 57

GFSFLT2_sfc_dewp_102.txt.gz
Dewpoint
71 72 71 70 70 70 69 70 70 70 71 71 72 72 71 72 72 72 72 71 71 71 70 70 70 70 69 68 68 68 64 63
71 71 71 72 72 69 69 69 69 70 70 70 70 70 71 71 71 71 71 71 71 70 69 69 69 69 68 67 67 67 66 66
70 70 71 71 71 70 70 70 69 69 70 70 69 69 70 71 70 70 71 69 69 69 68 68 68 68 67 67 67 66 67 66
69 70 70 70 68 70 71 70 69 70 69 70 69 69 69 66 68 69 69 68 68 68 68 67 68 68 67 67 66 64 68 66
66 69 70 70 69 69 69 70 69 70 70 69 70 68 69 68 68 69 70 68 67 67 67 67 66 66 67 65 64 66 65 64
64 66 68 70 68 68 68 69 69 69 69 71 70 69 68 68 66 67 68 67 66 66 65 66 66 66 66 66 65 64 61 62
50 64 67 68 69 67 67 68 68 68 68 69 69 68 68 67 66 66 67 66 67 66 66 66 66 66 66 65 64 64 63 62
39 50 63 66 67 67 66 66 66 67 67 68 69 68 68 67 67 67 65 66 67 66 67 66 66 66 66 65 65 64 64 64
48 46 52 63 66 66 66 64 65 64 66 68 68 68 68 68 66 66 67 66 68 68 68 67 66 65 65 65 64 64 64 64
50 49 50 52 62 63 65 65 65 64 64 67 67 68 67 68 66 66 66 67 66 66 65 65 64 65 64 65 64 64 64 65
52 53 53 51 53 61 63 66 66 65 64 65 67 68 67 67 66 65 66 66 65 65 64 64 64 64 62 63 64 64 64 63
50 51 54 55 52 54 61 61 67 66 65 64 66 68 67 67 66 66 66 65 65 65 64 63 63 62 62 62 63 64 63 63
48 50 52 52 51 47 56 59 64 63 64 65 66 67 67 66 66 65 65 64 64 64 63 62 62 63 62 61 61 62 62 62
48 48 49 50 51 51 51 57 59 61 63 66 66 66 67 66 65 64 64 64 64 64 63 61 62 63 60 59 56 57 61 61
46 47 48 50 52 52 51 57 59 62 64 66 66 66 66 66 65 64 64 64 64 64 63 62 60 62 61 58 55 55 57 60
44 45 46 47 50 51 53 52 56 59 61 64 65 65 65 65 64 63 63 64 64 64 63 63 62 60 61 61 60 57 55 54
41 43 44 45 47 49 53 53 59 58 60 63 64 64 64 64 64 64 64 64 64 64 64 64 63 61 60 60 60 58 59 56
40 41 41 43 45 48 52 57 57 58 59 62 63 64 64 64 64 64 64 63 63 63 63 63 63 62 61 61 59 57 57 56
39 39 40 41 44 47 52 58 57 61 60 62 62 62 63 63 64 61 62 63 63 63 62 64 63 62 61 60 60 58 58 57
39 38 39 41 44 48 52 59 59 62 62 62 62 62 62 64 62 59 59 61 62 63 63 64 63 64 61 61 60 60 60 59

GFSFLT2_sfc_dewp_105.txt.gz
Dewpoint
70 73 71 71 70 70 70 70 71 71 72 72 73 72 72 72 72 72 72 72 71 72 71 70 70 70 69 69 68 68 65 62
71 71 71 71 71 70 70 70 70 70 71 71 71 71 71 71 71 72 72 71 71 71 70 70 69 69 68 68 67 67 66 64
72 71 72 71 70 70 70 70 70 70 70 70 69 71 71 71 70 70 71 70 69 69 68 69 68 68 68 68 67 66 64 63
70 71 71 71 69 71 70 69 68 68 68 69 70 69 69 67 68 69 70 69 69 69 68 68 68 66 67 67 67 64 66 66
66 69 71 70 70 70 70 68 68 69 70 69 69 68 68 67 66 68 70 69 68 68 68 68 66 65 67 66 65 65 66 65
62 65 68 71 69 68 68 68 69 67 68 71 69 68 68 67 64 66 69 67 67 67 67 67 66 66 66 66 67 66 63 64
40 56 64 67 69 67 67 67 67 68 69 70 67 66 67 65 64 63 66 65 67 66 66 66 66 66 67 66 65 66 65 64
42 43 52 62 66 68 67 67 66 67 66 69 70 69 68 65 64 63 62 65 68 66 65 67 67 67 67 66 66 66 65 64
48 51 48 52 61 64 66 65 65 63 64 68 69 69 69 68 66 67 64 64 68 68 68 67 66 65 66 66 65 66 65 64
49 49 53 55 54 57 61 62 65 64 63 65 67 68 69 68 65 66 66 65 67 67 66 67 65 65 65 64 66 65 65 65
49 51 52 55 56 54 57 64 64 64 64 64 67 67 66 68 66 66 67 65 67 67 66 66 65 64 63 64 65 64 65 63
48 49 52 54 53 55 53 54 62 63 63 65 67 68 68 68 66 67 67 65 67 66 65 65 64 64 61 63 63 64 64 64
48 50 51 50 50 50 50 47 55 59 61 64 67 66 69 68 66 67 66 65 66 65 65 64 64 64 63 62 63 63 64 63
48 48 49 49 49 50 51 52 51 55 60 63 65 66 68 67 66 66 66 65 65 64 64 63 63 64 61 59 57 58 61 62
46 46 47 49 50 50 50 52 53 55 60 61 63 66 67 67 67 66 66 65 64 64 64 62 61 63 62 59 56 55 57 61
45 46 46 46 49 49 50 50 50 48 55 58 62 65 65 67 67 65 65 65 64 64 64 63 62 60 62 61 60 57 55 55
45 45 44 46 46 47 47 49 51 53 53 58 62 65 65 66 67 65 65 64 64 64 63 63 63 62 61 60 61 60 59 56
44 43 43 44 43 44 45 47 50 53 53 57 60 65 65 65 65 65 65 65 64 64 65 65 64 63 62 62 60 58 57 57
42 41 41 41 41 42 44 47 49 52 55 57 61 64 64 64 64 64 64 64 59 58 61 64 64 63 63 62 61 61 59 57
40 40 40 40 40 41 44 46 49 52 56 58 60 62 63 63 64 63 63 63 61 63 64 64 64 63 63 63 62 61 61 59

GFSFLT2_sfc_dewp_108.txt.gz
Dewpoint
73 72 71 71 70 70 70 71 72 72 72 72 72 72 72 72 72 72 73 72 72 72 71 70 70 70 69 69 68 68 68 65
73 73 72 71 71 70 70 70 70 71 72 71 71 71 72 72 71 72 72 72 71 71 71 70 69 69 68 68 67 68 68 66
72 72 72 72 71 70 70 70 70 70 71 71 70 72 72 71 70 70 71 70 70 70 70 69 68 68 68 68 68 68 66 65
71 72 72 72 70 71 70 70 69 70 70 71 72 72 72 70 70 69 70 69 69 69 69 68 68 68 68 68 67 67 66 65
70 71 71 71 71 72 70 69 69 69 69 70 70 69 70 69 69 69 70 69 70 69 68 68 68 68 67 67 67 66 67 65
68 70 71 71 71 70 71 71 69 69 69 70 70 69 69 69 67 69 70 69 69 68 68 68 67 67 66 67 67 66 67 64
50 57 68 71 70 71 70 69 71 69 71 70 68 69 68 68 67 67 68 68 68 67 67 67 66 66 67 66 66 66 65 66
52 54 56 56 69 69 70 70 70 70 69 69 70 69 67 66 67 65 67 67 67 66 66 66 66 66 66 66 66 66 66 65
54 55 59 60 59 62 68 68 69 69 68 69 69 69 70 68 67 65 64 66 65 67 67 68 66 66 65 66 66 66 66 65
52 52 57 59 60 60 58 59 67 67 66 67 69 68 68 68 67 65 67 66 66 67 66 66 66 66 65 65 65 66 65 64
52 54 55 57 59 59 59 59 57 66 66 66 68 68 67 68 67 66 66 66 66 66 66 66 65 65 65 64 64 65 64 64
51 52 55 56 56 58 58 57 57 56 63 65 66 68 67 67 67 67 66 65 65 67 65 66 65 64 62 63 64 64 64 64
49 50 52 51 51 51 52 52 55 55 57 62 66 67 67 66 66 66 66 65 64 66 65 64 64 64 62 62 62 63 63 63
47 47 48 49 49 51 51 52 52 54 55 57 62 64 66 66 67 66 66 65 64 65 64 63 63 64 61 59 56 58 60 62
45 46 46 48 49 48 49 50 51 52 53 53 55 62 64 66 66 66 66 65 64 65 64 62 61 63 61 57 54 54 55 60
45 46 45 45 47 46 47 47 47 49 51 53 54 63 63 65 66 66 65 64 64 64 64 62 61 61 62 60 59 58 54 54
45 44 43 44 45 45 44 44 46 48 50 52 54 55 62 64 65 65 64 64 63 64 64 62 61 60 60 60 59 59 59 55
43 42 41 42 43 42 42 42 43 45 47 49 52 55 59 62 64 66 65 64 64 63 60 63 62 62 61 60 59 58 58 56
40 40 40 41 41 40 40 41 42 43 45 48 50 54 58 59 63 65 65 64 63 63 63 63 62 62 61 60 60 59 59 58
39 39 39 40 40 39 39 40 43 44 46 48 50 53 57 61 63 64 64 64 63 63 62 61 60 60 60 61 61 60 60 59

GFSFLT2_sfc_dewp_111.txt.gz
Dewpoint
70 70 71 70 70 70 70 71 71 71 71 72 72 72 71 72 72 72 72 72 72 71 71 70 70 69 69 68 68 68 68 66
70 70 70 70 69 69 70 70 70 71 71 71 71 71 71 71 71 71 71 71 71 71 70 70 69 68 68 68 67 67 68 66
71 71 70 70 70 70 70 70 70 70 71 70 70 71 71 71 70 70 71 70 70 70 70 69 68 68 68 68 67 67 67 66
69 70 70 70 70 69 69 69 70 70 70 71 71 71 71 71 70 69 69 69 69 69 69 68 68 68 67 67 67 67 67 66
69 70 70 71 70 69 69 69 69 69 69 70 70 71 71 70 70 69 69 69 70 69 68 68 68 68 67 67 67 67 66 66
70 70 69 68 69 71 70 68 68 68 68 69 69 69 68 69 69 69 69 69 69 68 68 68 68 68 67 67 67 66 66 65
50 64 66 68 68 69 70 70 69 68 68 68 69 68 68 68 68 69 69 69 68 68 68 68 67 67 67 66 67 66 66 66
50 52 54 55 60 65 67 67 68 69 69 69 68 68 67 67 67 67 68 68 68 68 67 67 67 67 66 66 66 66 65 65
50 52 53 55 56 57 59 65 68 67 68 68 69 68 68 67 66 66 67 68 67 67 66 67 66 66 65 65 65 65 65 65
50 51 53 54 54 56 56 58 59 63 67 68 67 68 68 68 67 66 65 66 65 66 66 66 65 65 64 64 65 65 65 64
49 50 51 52 53 54 55 55 56 58 61 65 67 68 67 67 67 67 65 65 66 65 65 65 64 65 64 64 64 64 64 65
47 49 49 49 50 52 52 53 54 55 54 57 65 67 68 67 66 66 66 65 64 65 65 65 65 64 64 63 63 64 64 63
46 47 47 48 48 48 48 50 50 51 52 53 54 64 67 67 66 66 66 66 64 65 65 64 62 64 61 60 60 63 63 63
45 45 45 45 47 47 48 49 50 51 52 52 53 54 58 66 66 66 66 66 65 64 64 63 62 63 60 59 57 57 60 63
44 44 43 44 44 45 45 45 46 48 49 49 50 52 54 58 65 66 66 66 65 64 63 63 61 61 60 57 54 52 54 57
42 42 41 41 43 42 42 42 42 43 45 47 48 49 52 55 58 63 65 65 64 62 59 59 57 59 61 61 57 55 52 53
41 41 41 41 41 41 40 39 41 42 43 44 46 48 50 53 56 61 62 64 63 59 57 59 61 61 57 60 59 58 56 53
39 39 39 39 39 39 39 38 39 40 41 42 44 46 49 51 55 59 62 62 63 62 60 60 61 60 60 59 57 57 57 56
37 37 36 37 38 38 38 38 38 39 41 43 44 46 48 50 54 57 60 61 61 62 62 62 61 61 61 59 60 59 57 57
36 36 35 36 37 37 37 38 39 39 42 43 44 46 48 50 52 56 58 61 62 62 62 60 59 61 60 60 60 59 59 58

GFSFLT2_sfc_dewp_114.txt.gz
Dewpoint
70 70 71 70 69 70 70 70 71 71 71 71 72 71 71 71 71 72 72 71 71 71 71 70 70 70 69 68 67 68 66 67
69 69 70 70 69 69 69 70 70 70 70 70 70 70 71 71 70 71 71 71 71 71 70 70 69 68 68 67 67 67 67 66
68 69 69 69 69 69 70 70 70 70 70 70 69 71 71 71 70 70 70 69 70 70 70 69 68 68 67 67 67 67 67 67
69 69 69 68 69 69 69 70 70 71 71 71 71 71 70 71 70 69 69 69 69 69 69 68 68 68 67 67 66 67 67 66
69 69 69 69 69 68 68 68 68 69 70 70 70 69 71 70 70 70 69 69 69 69 68 68 68 67 66 66 66 66 66 66
68 68 68 68 68 68 68 68 67 68 68 69 69 69 70 70 70 69 68 69 68 69 69 68 67 67 67 66 66 66 66 66
64 64 62 65 68 69 70 69 68 67 68 68 69 69 69 69 69 69 68 68 69 68 68 67 67 67 67 66 66 66 66 66
53 54 55 55 59 59 64 67 67 67 68 68 68 68 68 68 68 68 68 68 68 68 68 67 67 67 66 66 66 66 66 65
52 53 53 53 54 56 59 60 62 65 68 67 67 68 68 67 67 67 68 68 68 68 67 67 67 66 66 66 66 66 65 64
49 49 50 50 51 52 53 56 58 59 61 64 67 68 68 68 68 67 67 68 68 68 67 66 66 66 65 65 64 64 64 64
47 47 47 48 49 50 51 52 53 55 56 57 62 65 67 68 67 67 66 66 67 67 66 66 65 65 65 64 64 64 64 64
46 46 46 47 47 48 49 50 50 52 52 53 54 56 60 65 66 66 66 65 65 66 66 65 64 64 64 63 63 64 64 64
44 44 45 44 45 45 46 46 46 48 49 51 52 55 56 55 63 66 65 65 64 64 64 63 63 64 61 59 60 63 63 63
42 42 42 42 43 45 45 44 47 46 48 48 49 50 52 53 55 60 65 65 64 63 64 63 64 64 62 61 58 59 61 62
41 41 41 41 42 42 41 42 43 44 43 44 46 47 48 50 52 54 56 64 65 64 63 62 60 61 61 59 55 55 56 58
40 40 39 40 40 40 39 39 39 40 41 42 43 45 47 49 51 53 55 58 62 64 63 62 59 56 56 58 58 57 53 53
37 37 37 37 38 39 39 38 38 39 40 41 42 44 46 48 49 50 52 54 58 63 61 57 57 55 54 56 56 58 57 54
36 35 34 36 37 37 37 37 37 38 39 40 42 44 45 47 48 50 52 55 58 61 62 60 57 56 55 56 57 57 55 54
35 35 34 34 35 35 36 36 37 38 38 40 40 42 44 46 48 50 51 52 55 60 60 59 58 58 57 56 57 54 56 57
33 34 34 34 34 34 35 36 37 37 37 38 39 42 43 45 47 49 50 52 54 57 61 60 59 59 59 59 57 58 59 58

GFSFLT2_sfc_dewp_117.txt.gz
Dewpoint
68 70 70 70 69 70 70 70 70 70 71 71 71 71 71 71 71 71 72 72 71 72 71 70 70 70 69 68 67 68 67 66
68 68 69 69 69 69 69 70 70 70 70 70 70 70 70 70 70 71 71 71 71 71 70 70 70 69 68 67 67 67 66 66
67 67 68 68 68 69 70 70 70 69 70 70 69 70 70 70 70 69 70 69 70 70 70 69 68 68 67 67 67 67 66 66
67 67 67 67 69 68 68 69 70 70 70 70 70 70 70 70 69 68 69 68 69 69 69 68 68 67 67 67 66 66 66 66
68 68 68 67 68 67 67 68 69 70 69 69 70 68 69 70 70 69 68 68 68 68 68 68 68 67 66 66 66 66 66 66
68 68 68 68 69 67 67 67 67 68 69 69 69 69 69 68 68 68 68 68 68 68 68 68 68 67 66 65 65 65 65 65
64 60 62 66 67 68 69 67 67 66 67 68 68 68 68 68 68 68 68 68 68 68 68 68 68 67 66 66 65 65 65 65
54 54 54 55 58 59 61 63 66 68 67 67 67 68 68 68 68 68 68 68 68 68 68 67 67 67 67 66 66 65 65 65
51 51 51 51 52 53 56 57 60 61 62 64 66 67 67 67 67 68 69 68 68 68 67 67 67 67 67 66 66 66 66 65
48 49 49 49 50 51 51 54 55 56 59 60 61 63 64 67 67 67 68 68 67 67 67 67 66 66 66 65 66 66 65 65
46 47 47 48 48 49 49 50 50 53 53 55 56 58 59 60 63 67 67 67 67 67 67 67 66 65 65 65 65 65 65 65
45 44 45 45 46 47 47 46 46 49 49 50 52 54 55 56 58 62 66 65 65 66 65 66 65 65 65 65 64 64 65 65
42 42 42 43 43 43 45 43 45 45 47 46 47 50 50 50 52 54 57 63 64 63 64 63 64 65 62 61 60 62 62 63
40 41 41 41 41 42 42 42 44 43 44 43 46 45 47 48 50 51 54 55 58 64 64 62 62 63 60 60 58 59 61 63
38 39 38 39 40 40 40 41 40 41 40 41 42 44 45 47 48 50 51 53 53 57 63 63 62 61 62 58 53 55 57 59
35 36 36 38 38 38 38 38 38 39 39 40 41 43 45 47 48 48 49 51 53 55 59 63 63 58 57 58 56 56 54 51
35 34 34 36 36 37 37 37 38 38 39 39 41 43 44 46 48 47 48 49 50 53 54 58 63 61 56 55 56 55 55 52
35 34 33 34 35 35 36 36 36 37 37 38 39 40 42 45 46 47 49 50 51 52 54 57 61 60 58 57 55 54 54 53
33 34 33 33 34 34 35 35 36 36 36 37 38 39 41 43 44 45 46 49 50 52 52 54 59 60 57 56 57 55 55 55
33 33 33 34 33 34 34 34 35 36 36 36 37 38 39 41 42 43 44 46 48 50 53 53 56 60 58 56 56 57 57 56

GFSFLT2_sfc_dewp_120.txt.gz
Dewpoint
68 69 71 70 70 70 69 70 70 70 70 71 71 71 71 71 71 72 72 72 72 71 71 71 70 70 69 68 67 68 67 66
67 68 69 69 69 69 69 69 69 70 70 70 70 70 70 70 70 70 71 71 71 71 70 70 70 69 68 68 66 67 67 66
66 67 68 68 68 69 69 70 70 69 70 69 68 70 69 69 69 69 70 69 70 70 70 69 69 68 68 67 67 67 66 66
66 66 67 67 69 68 68 69 69 70 70 70 70 70 70 69 69 68 69 68 69 69 69 68 68 68 67 67 67 66 66 66
67 66 66 67 68 67 67 68 69 70 70 70 70 70 69 69 69 69 68 68 68 68 68 68 68 67 66 66 66 66 66 66
66 66 67 67 68 67 67 68 68 68 69 69 69 69 69 69 68 68 68 68 68 68 69 69 68 67 66 66 66 66 66 66
67 69 68 68 68 68 67 66 67 67 68 69 69 69 68 68 68 68 68 68 68 67 68 68 68 68 67 66 66 66 66 66
55 57 60 58 59 60 61 62 64 66 66 67 68 68 68 68 68 68 68 68 68 67 67 67 66 67 67 66 66 66 65 65
51 52 53 53 54 54 56 57 59 59 61 62 62 63 62 65 67 67 68 68 67 68 67 67 67 66 66 66 66 66 65 65
47 48 49 50 50 52 53 53 54 55 56 58 58 59 60 61 61 63 67 68 68 67 67 66 66 66 66 66 66 66 66 65
43 44 45 46 48 49 49 49 50 50 51 52 53 55 55 56 59 61 62 65 66 66 66 66 66 66 66 66 65 65 65 65
42 42 42 44 45 46 45 45 46 46 47 46 49 50 50 51 53 54 56 60 64 65 64 65 64 65 65 64 65 65 65 64
40 40 40 41 42 43 43 41 44 44 43 44 46 46 48 48 49 50 53 54 55 59 64 62 61 63 62 61 62 63 64 64
36 37 38 38 39 41 41 41 43 43 41 43 43 44 46 46 47 48 50 51 52 53 58 63 62 63 61 58 54 56 60 63
34 35 35 37 38 39 39 40 40 40 40 40 41 43 45 46 47 48 48 49 50 52 54 56 61 62 63 59 55 55 57 60
37 36 35 35 36 37 37 38 37 39 39 40 40 42 43 45 47 48 49 50 50 50 53 53 57 60 60 62 58 57 55 54
36 37 37 34 34 35 36 36 37 38 38 38 39 40 42 43 46 46 47 48 50 50 51 51 53 55 59 57 57 56 55 54
36 34 34 35 34 34 35 35 35 36 36 37 37 39 40 42 42 44 44 46 47 49 52 52 52 53 56 59 57 56 54 53
35 34 33 34 34 34 34 34 34 35 35 36 36 37 38 39 40 41 42 44 45 47 48 50 52 53 53 57 59 58 56 55
32 32 33 34 34 34 34 34 34 34 34 34 35 35 35 37 38 39 41 42 43 45 47 49 52 53 53 54 59 59 58 56